ECMWFFLT1_925_thetae_105.txt.gz
Theta_e
352 354 355 352 348 344 345 349 348 350 350 350 349 349 349 350 351 352 353 352 352 352 352 351 351 352 352 351 351 350 350 349 349 349 349 351 352 352 352 353 354 355 356 358 357 357 355 354 354 356 356 355 356 356 355 356 356 357 357 355 355 355 354
352 353 355 355 351 345 345 348 348 349 349 348 349 349 348 350 351 351 352 352 351 352 352 351 351 352 352 352 351 350 349 349 349 350 350 351 352 352 352 353 353 353 354 356 356 354 354 353 353 354 356 356 357 356 355 355 355 356 358 356 356 355 353
353 353 355 356 355 350 346 346 347 348 348 348 348 349 349 350 350 350 351 351 352 353 352 351 351 351 352 352 351 350 349 349 349 350 351 352 351 352 352 352 353 353 354 354 354 354 354 354 353 353 355 357 357 356 356 356 355 354 356 356 357 356 354
352 353 354 355 357 354 348 346 346 347 347 347 348 348 349 349 349 350 351 351 352 353 352 352 351 352 352 351 351 350 349 349 349 349 352 353 352 352 352 352 352 354 354 353 353 354 354 354 353 353 353 355 356 356 356 357 357 355 355 356 357 357 356
352 352 353 354 357 357 352 347 345 346 347 347 348 348 348 349 350 350 351 352 352 353 352 352 353 353 352 352 352 352 350 350 350 349 351 352 351 351 352 353 353 353 353 353 353 352 352 353 354 353 353 354 355 356 356 356 357 356 355 355 357 358 357
352 352 354 355 356 357 356 352 348 347 347 347 347 348 348 348 349 350 351 352 353 353 353 353 354 353 352 352 353 352 351 350 350 349 350 350 350 351 352 353 353 353 354 353 353 352 352 352 353 353 354 355 356 357 357 357 357 357 356 355 356 357 357
352 352 354 355 355 356 357 355 353 349 346 346 346 347 347 347 348 350 351 352 352 352 352 353 353 353 352 353 353 352 351 350 350 349 350 351 350 351 352 352 352 353 354 353 352 353 352 352 352 352 353 355 356 356 356 355 356 356 356 355 355 355 356
352 352 352 353 354 356 356 355 355 353 348 347 347 347 347 346 347 349 350 351 352 352 352 352 353 353 352 352 352 352 352 352 351 350 350 352 352 353 353 353 352 352 353 354 353 352 352 352 353 353 353 355 355 355 354 354 354 356 356 356 355 356 357
354 353 352 351 353 354 352 352 353 352 349 348 347 346 346 344 345 346 348 349 351 352 352 352 352 353 352 352 353 353 353 353 353 352 352 353 354 354 355 354 354 353 353 354 354 353 352 352 353 353 353 354 354 354 354 354 354 355 356 356 356 356 357
355 354 353 352 352 352 351 351 351 350 350 351 350 348 346 343 343 346 347 348 348 350 351 351 351 351 351 351 353 354 354 354 354 354 354 354 355 355 355 355 355 354 354 355 355 354 353 352 353 353 353 353 354 354 354 354 354 354 355 355 355 355 356
353 353 354 353 352 351 351 352 351 350 351 352 352 351 349 346 347 348 348 348 348 348 349 348 348 349 349 350 351 353 353 354 355 354 354 354 354 355 354 355 355 355 355 355 355 355 354 352 352 352 353 354 355 355 354 354 354 354 354 355 355 354 356
350 351 353 353 353 352 351 352 352 351 351 351 351 351 350 349 349 349 348 348 347 347 348 348 348 348 349 349 351 352 352 353 354 354 354 354 354 354 354 354 354 355 355 355 355 355 354 354 353 352 352 353 354 355 354 353 353 353 353 355 355 355 355
348 349 350 350 351 351 350 349 349 350 350 350 350 350 350 350 350 350 350 349 348 348 349 348 349 349 349 350 351 352 352 352 353 352 354 355 354 354 354 354 354 354 355 355 355 355 355 355 354 353 352 353 353 354 353 352 352 351 350 352 353 354 354
346 346 346 347 348 349 348 348 348 349 350 350 350 350 349 350 350 350 351 351 350 351 350 350 350 349 349 350 350 351 351 352 352 353 353 354 353 354 354 354 355 354 354 354 355 355 355 355 355 354 353 354 353 352 352 351 351 352 350 350 350 352 354
344 343 344 346 347 347 347 348 349 349 349 350 350 350 350 350 350 350 350 350 351 351 351 351 351 351 350 350 350 350 351 351 351 353 353 353 352 353 354 354 354 354 354 353 353 354 354 354 354 353 353 353 352 352 352 352 352 352 351 350 350 351 353
343 342 343 343 344 344 344 344 345 346 346 347 347 348 348 348 348 349 349 350 350 351 351 351 352 352 351 350 350 350 351 351 352 352 353 353 353 353 353 353 353 353 352 353 353 353 353 353 353 353 353 353 352 352 352 352 352 351 351 351 351 351 352
341 341 341 341 341 341 340 341 342 342 342 343 343 344 345 345 346 347 347 348 349 350 350 350 350 351 350 351 351 351 351 351 352 352 352 352 352 352 352 352 352 353 352 352 352 352 352 352 352 352 352 352 352 352 352 352 351 350 350 351 351 350 350
340 339 338 338 338 338 337 337 338 337 337 337 338 339 340 342 343 344 345 346 347 348 349 349 349 349 350 350 350 350 351 351 351 350 351 351 351 351 352 352 352 352 352 352 352 352 352 351 351 351 352 351 351 351 351 351 350 350 350 350 349 349 349
338 336 336 336 335 335 334 334 333 333 332 331 332 333 335 336 337 338 340 342 343 344 345 345 345 346 347 349 349 350 350 350 349 349 349 350 350 350 351 351 352 352 352 352 352 351 352 351 351 351 350 350 350 350 350 350 349 349 349 348 347 347 347
335 334 334 334 333 332 332 331 330 329 329 329 328 329 330 332 332 332 334 335 337 338 338 339 339 340 342 344 345 347 348 348 348 348 348 348 348 349 349 349 350 351 350 351 351 351 351 351 351 351 350 350 350 349 350 350 349 348 348 346 347 346 346
333 333 332 331 330 330 330 330 329 328 328 327 327 327 328 328 328 329 329 330 331 332 332 333 334 335 337 338 340 341 342 344 345 346 347 348 348 348 348 348 349 350 349 349 350 350 350 350 350 351 350 351 351 350 350 351 349 349 349 348 348 348 347
332 331 330 329 329 329 329 328 328 328 327 326 325 326 326 326 326 327 327 327 327 328 328 329 329 330 332 334 336 337 339 340 341 342 344 346 347 347 347 347 348 349 349 349 350 350 351 351 352 352 352 352 353 352 353 353 351 350 350 350 349 348 347
329 328 328 328 328 327 326 326 326 326 326 325 324 324 325 325 326 325 325 325 325 326 326 327 327 327 327 328 330 333 334 336 338 339 340 341 342 343 343 345 347 349 350 351 351 351 352 352 352 353 353 353 353 353 354 354 353 351 350 350 349 348 347
326 326 327 327 326 326 325 325 324 324 324 324 324 323 323 324 324 323 323 324 324 325 325 326 327 327 327 327 328 329 331 332 333 335 336 336 337 337 339 341 343 345 347 348 349 350 351 352 352 352 353 353 353 354 354 354 354 353 352 351 350 350 349
324 324 325 325 325 325 324 324 323 322 322 323 322 322 321 321 321 321 323 324 323 324 325 325 325 325 326 327 328 328 329 330 331 332 333 333 333 333 335 336 338 340 342 342 343 345 346 347 349 349 350 351 352 352 353 353 354 353 353 353 352 352 351
323 322 323 323 323 323 322 322 321 322 322 321 321 321 320 320 321 322 323 323 322 322 323 324 323 323 324 325 326 327 328 330 331 331 332 333 333 333 333 334 335 337 340 341 341 340 340 341 343 345 347 347 348 349 350 350 350 350 351 352 353 353 353
322 322 322 322 322 322 321 321 321 322 321 321 320 321 320 320 321 322 323 322 321 322 321 321 321 321 322 322 323 324 325 327 329 330 330 332 333 334 335 335 336 337 339 341 341 340 340 341 342 343 344 344 345 346 346 347 347 347 347 348 350 352 352
322 322 322 322 322 321 321 322 322 321 321 321 321 321 321 321 322 322 322 321 321 321 319 319 319 320 320 320 320 321 322 324 325 327 328 329 331 333 334 336 337 338 340 342 342 342 343 342 340 340 340 340 340 341 342 343 343 342 342 341 343 347 349
322 322 321 321 321 320 321 321 321 321 320 320 321 321 321 321 321 321 321 320 320 320 319 317 317 319 320 319 319 318 319 320 322 324 325 326 328 329 330 331 332 335 338 340 340 340 339 337 336 336 337 339 338 337 339 340 338 336 335 335 336 340 343
321 321 320 319 319 319 320 320 319 319 319 318 318 319 319 321 321 320 320 319 319 319 319 317 316 318 320 320 319 318 317 317 318 319 321 323 325 326 327 327 327 328 330 332 332 332 331 330 331 332 334 337 338 339 340 340 337 335 333 332 332 334 336
320 320 319 318 317 317 319 319 318 318 318 318 317 317 318 319 320 319 319 317 317 318 318 318 318 319 320 321 321 320 319 317 316 316 317 318 320 322 323 324 325 325 326 326 326 326 326 327 328 330 331 333 335 338 339 337 334 332 331 331 331 332 333
320 319 318 318 317 316 317 318 318 318 318 318 317 317 317 317 318 318 317 316 317 318 318 318 319 319 319 320 320 321 321 320 318 317 316 316 317 318 318 319 321 322 323 323 324 324 325 325 326 328 330 331 332 334 333 330 327 327 327 328 329 330 332
319 319 318 317 316 315 316 317 318 319 318 318 318 318 317 317 317 317 316 317 318 319 319 319 319 319 320 320 320 320 321 320 319 318 318 317 317 317 317 317 318 319 320 322 322 323 324 325 326 327 329 330 330 332 330 327 325 326 326 326 327 327 329
318 318 318 317 315 314 315 316 317 317 317 317 317 317 317 318 318 317 317 318 318 319 319 319 319 319 319 320 320 320 320 320 319 319 319 318 318 318 318 318 318 319 319 320 320 321 322 323 325 326 327 328 329 330 330 329 327 325 325 325 325 326 326
318 317 317 316 315 314 314 314 314 314 315 315 315 315 316 317 317 317 317 317 318 319 319 319 319 319 319 319 319 319 319 319 319 318 318 318 318 318 318 317 316 318 319 318 318 318 319 320 322 323 323 325 327 329 330 329 327 324 323 323 324 325 325
317 316 315 314 314 315 315 314 314 314 314 315 315 314 314 314 314 315 314 314 316 317 317 318 318 318 317 317 318 318 318 318 318 318 318 318 318 318 318 316 315 315 317 317 317 317 317 319 320 321 322 323 325 326 326 326 324 323 323 323 323 324 325
315 315 313 314 316 317 316 316 315 315 315 316 315 314 314 312 312 312 311 311 312 312 314 315 316 316 316 316 316 316 317 317 317 317 317 317 318 318 318 318 317 315 315 315 316 316 317 318 319 320 321 322 323 324 323 323 322 322 323 323 323 324 327
314 313 313 314 317 318 317 317 318 317 317 316 316 315 314 313 312 311 310 310 309 309 310 313 314 315 315 315 315 315 315 315 316 316 316 316 317 317 318 319 319 319 317 316 315 315 316 317 318 318 319 320 321 322 322 322 323 323 323 323 323 324 329

ECMWFFLT1_925_thetae_108.txt.gz
Theta_e
353 353 352 353 353 350 349 350 350 351 351 353 354 353 352 350 350 353 355 357 357 357 358 357 357 357 358 358 357 357 357 355 356 356 356 356 356 357 357 357 357 358 358 358 358 358 358 358 359 358 360 361 360 363 364 362 362 361 361 362 361 361 360
354 353 352 353 354 350 350 351 351 351 352 354 354 353 352 351 353 355 357 359 359 358 358 358 357 357 357 358 358 358 357 356 356 356 356 356 357 357 357 357 357 358 359 359 358 359 359 359 359 358 360 360 360 363 363 361 362 361 361 362 361 361 361
355 354 353 354 354 352 351 352 351 352 353 354 353 353 353 353 355 357 359 360 360 359 358 357 357 357 357 358 358 358 358 356 356 356 355 355 356 356 356 357 358 357 358 358 358 359 357 358 359 358 359 360 359 361 362 361 361 361 362 363 361 361 361
355 354 354 355 355 352 352 352 352 352 353 353 352 352 353 354 356 358 359 359 359 358 357 356 356 356 356 356 357 358 358 357 356 356 354 353 354 355 355 357 358 357 357 358 359 359 358 358 359 359 359 360 360 360 361 361 360 360 363 363 360 361 362
355 355 357 358 356 354 353 352 353 353 352 353 353 353 353 355 356 357 358 357 356 356 356 355 353 353 355 355 355 356 357 357 356 355 354 353 354 355 355 356 357 357 358 359 359 359 360 359 359 359 359 360 360 360 360 360 360 361 363 362 360 360 359
354 355 357 357 356 355 354 353 353 353 352 353 354 354 354 355 356 356 356 357 356 355 356 355 352 352 354 354 353 353 355 356 357 356 355 354 355 356 356 356 357 357 357 358 358 359 359 359 359 358 359 359 358 358 359 360 359 359 362 362 361 359 358
353 354 355 356 355 354 354 353 351 350 351 353 354 353 353 354 356 356 356 357 357 357 358 357 355 353 354 354 353 353 354 355 356 356 355 354 354 356 356 356 356 356 356 357 358 358 358 358 358 358 358 357 357 357 358 360 360 359 361 362 362 362 360
352 354 354 355 354 354 354 354 351 349 350 352 352 353 353 354 354 354 356 356 357 358 358 358 357 355 356 356 353 353 354 354 354 355 354 353 354 355 355 356 356 357 356 356 357 358 357 358 358 358 358 357 358 358 358 361 361 359 359 360 362 362 360
354 354 355 355 354 354 355 354 354 353 351 352 353 352 352 354 354 354 355 356 357 359 359 358 358 358 359 358 356 355 355 353 353 353 353 352 352 353 353 354 355 356 357 356 357 357 357 357 357 358 358 358 359 360 360 361 361 359 359 361 362 363 360
356 355 356 355 356 357 357 357 357 354 351 351 353 354 355 355 355 355 356 356 357 358 359 358 357 358 359 359 358 357 355 354 352 352 352 352 351 351 352 352 353 355 356 356 355 355 357 357 357 358 359 358 360 361 360 361 361 359 360 361 361 362 362
357 356 355 355 356 357 356 357 356 353 350 349 350 355 355 353 354 356 357 357 357 357 358 358 357 358 358 359 359 358 356 354 353 352 352 352 350 350 350 351 351 354 355 355 354 354 356 356 357 358 359 358 359 360 360 360 360 361 360 360 360 360 361
356 355 355 356 356 355 354 355 355 354 353 351 352 354 352 350 351 352 352 354 355 356 358 358 358 358 358 358 358 358 357 355 354 353 353 352 351 350 350 350 350 352 354 355 354 354 355 356 356 357 358 358 357 358 359 360 360 361 360 359 359 359 360
354 355 354 355 356 354 354 354 354 355 354 354 354 352 350 350 350 348 347 351 353 354 355 356 356 356 358 358 357 357 357 356 355 354 354 354 353 352 351 350 350 351 353 353 354 355 355 355 355 356 356 356 356 356 358 359 359 360 360 360 359 359 359
351 353 353 353 353 353 353 353 353 355 354 353 353 352 351 351 350 349 349 351 352 350 350 351 351 351 352 355 356 356 357 356 355 356 355 356 356 356 354 353 351 351 352 352 354 355 355 354 354 355 355 354 354 354 355 357 358 358 359 359 358 358 358
349 350 351 351 351 351 352 351 352 354 353 352 352 352 352 351 351 351 351 351 350 348 348 350 349 348 347 348 350 351 352 353 355 358 358 358 359 359 358 356 354 353 352 352 353 354 354 354 353 354 353 352 353 354 353 353 354 355 356 357 357 357 356
349 349 349 349 349 349 349 350 352 353 353 353 353 352 352 351 352 352 351 352 351 350 350 351 351 350 348 347 348 347 347 347 349 353 355 357 359 361 360 358 357 355 354 354 354 353 353 354 354 353 353 352 353 353 352 349 348 351 354 354 354 355 355
348 347 346 345 346 345 345 346 348 349 349 350 351 350 350 350 350 351 352 352 351 352 352 351 351 351 350 349 349 349 348 347 347 349 350 351 354 357 359 358 358 357 356 356 356 355 354 354 354 352 350 350 350 350 349 346 345 348 351 352 351 352 354
345 344 342 342 343 342 341 341 343 344 344 344 344 345 346 347 348 349 350 351 351 352 352 351 351 352 352 352 352 351 351 350 350 351 352 351 351 352 354 356 357 357 357 357 357 356 356 355 355 354 351 348 348 348 348 346 345 347 350 349 348 349 352
342 341 340 340 339 339 338 338 339 340 340 340 340 340 340 341 342 343 345 347 349 350 350 350 351 351 351 352 352 352 353 353 353 353 353 353 353 352 353 354 355 356 357 358 357 356 357 357 356 356 355 353 351 351 350 347 347 349 349 348 348 349 350
340 339 338 337 337 338 338 337 337 336 336 336 336 336 336 336 336 338 340 341 343 344 346 346 347 347 349 350 350 351 352 353 354 354 354 353 353 353 353 353 354 355 356 357 357 357 357 357 357 357 356 356 355 355 354 351 350 350 350 348 348 348 348
339 338 335 335 336 337 337 336 335 334 335 335 334 333 334 334 335 335 336 338 339 340 341 342 343 343 345 346 347 349 349 350 351 352 353 353 352 352 352 351 352 353 354 355 356 356 356 356 356 355 356 356 356 356 355 353 352 353 352 350 348 348 347
337 335 334 335 335 335 335 335 335 334 334 334 333 333 333 333 334 333 333 334 335 335 336 338 338 339 341 342 343 344 345 347 348 348 349 350 351 351 350 349 349 350 351 352 354 354 355 355 355 355 355 356 357 357 355 353 352 353 352 351 350 349 349
334 332 333 334 333 333 332 332 334 334 333 333 333 332 332 332 333 332 332 332 331 331 332 333 333 334 336 338 340 341 342 343 344 344 345 346 346 347 347 347 347 347 348 349 351 353 354 354 355 356 356 356 357 357 356 354 354 354 353 352 351 350 351
330 329 329 330 331 331 330 330 331 331 331 331 331 331 331 331 331 331 332 332 331 331 332 333 332 331 332 334 337 339 339 341 341 342 342 342 342 343 343 344 345 346 348 350 350 351 352 353 354 355 356 356 356 357 356 354 354 355 354 353 352 350 352
329 327 327 327 328 328 328 328 328 328 329 329 329 328 329 329 329 329 329 330 330 331 332 333 333 332 331 331 334 336 337 338 338 339 340 339 338 338 339 340 340 341 345 348 349 349 351 352 353 353 354 354 355 355 355 353 353 354 354 354 353 352 353
329 328 327 327 326 326 326 326 325 325 326 326 326 326 326 327 327 327 327 328 328 329 330 331 332 332 331 330 331 333 335 335 336 337 337 338 337 336 336 338 339 339 341 342 342 343 345 347 350 351 351 352 353 353 351 349 346 348 351 352 352 353 354
328 327 326 326 325 324 324 323 323 323 324 324 324 323 324 325 326 325 325 325 326 326 328 329 330 330 331 330 330 331 332 333 334 335 336 336 337 337 337 337 338 340 341 339 337 338 340 343 346 347 347 348 347 346 345 344 342 343 345 347 348 349 351
326 326 325 325 324 323 323 323 323 322 323 323 323 322 323 325 325 325 325 324 324 324 325 327 328 328 329 329 329 329 329 330 331 333 334 335 336 337 338 338 339 341 343 340 338 340 342 342 343 343 343 343 342 342 342 341 339 338 339 341 344 346 348
326 325 324 323 323 323 323 322 322 322 322 322 323 323 323 324 325 325 325 324 323 323 324 325 326 327 327 327 327 327 328 329 329 331 332 334 335 336 337 338 339 341 342 342 341 342 342 342 341 342 342 341 341 343 342 337 335 335 335 335 337 340 342
325 323 323 322 322 322 321 321 321 321 321 322 322 323 323 323 324 324 324 324 323 323 323 324 324 325 325 325 325 326 326 327 328 328 330 331 332 333 334 335 336 337 338 339 339 339 340 340 341 341 341 341 342 343 341 337 334 333 332 331 332 333 335
324 323 322 322 322 322 321 320 321 321 321 321 321 322 322 322 323 323 323 323 323 323 323 323 323 324 324 324 325 324 324 324 325 326 327 328 329 330 331 332 333 334 334 334 336 337 337 337 339 340 340 340 341 342 340 337 334 333 331 330 330 330 330
322 321 320 320 321 321 320 320 320 320 321 321 320 321 321 321 322 323 322 322 322 322 323 323 323 324 324 324 324 323 323 323 322 322 324 325 326 327 328 329 330 331 331 332 332 333 334 335 336 337 338 338 338 339 337 336 335 335 332 330 330 330 330
322 321 320 320 320 320 320 319 319 320 320 321 320 320 320 320 321 322 322 322 322 322 322 322 323 324 324 324 323 323 323 322 322 322 321 322 323 324 325 326 327 328 329 330 330 330 331 332 333 333 335 335 336 336 335 335 335 334 330 328 329 329 331
323 323 322 321 320 321 320 320 319 319 320 320 320 320 320 320 320 320 321 321 320 320 321 321 321 322 323 323 323 322 323 322 322 322 322 321 322 322 321 322 324 326 326 326 326 327 329 330 331 330 331 333 334 334 335 335 334 330 326 324 325 325 327
323 323 322 321 321 321 321 321 320 320 319 319 319 319 319 320 319 319 320 319 319 319 319 320 320 321 322 322 322 322 322 322 321 322 321 322 322 322 320 319 319 323 325 322 318 319 322 325 328 327 327 330 332 332 333 334 332 327 324 324 324 324 324
321 321 321 321 321 320 320 320 319 319 318 318 319 319 318 318 318 318 318 318 318 319 319 319 320 321 321 321 321 320 321 321 321 321 321 321 322 322 322 320 317 317 319 319 316 314 316 318 321 322 323 327 329 328 328 328 327 325 324 324 324 323 323
317 317 318 320 321 320 319 319 319 318 318 318 318 317 316 316 315 315 315 316 316 317 318 318 319 319 319 319 319 318 320 320 320 321 321 321 321 322 323 323 320 317 316 316 316 315 316 316 318 319 320 323 325 325 324 324 323 323 324 324 324 323 323
316 315 315 317 319 321 320 320 319 319 318 318 317 316 316 315 314 313 313 314 314 315 316 317 318 318 318 317 317 317 318 319 319 319 320 320 321 321 322 322 323 322 320 318 316 316 316 316 317 318 319 320 322 324 323 322 322 323 323 323 324 323 324

ECMWFFLT1_925_thetae_111.txt.gz
Theta_e
355 357 362 362 355 348 350 351 349 349 349 348 349 350 351 351 350 351 352 354 356 358 359 360 360 360 359 359 358 357 356 356 356 357 357 357 357 358 358 358 358 357 356 355 355 356 357 358 358 357 360 362 362 364 366 364 362 361 362 362 360 362 363
354 354 358 360 358 351 350 352 350 349 349 348 350 351 351 351 351 351 352 354 355 356 358 359 360 360 360 360 359 358 357 356 356 357 357 357 359 359 358 356 357 357 357 356 355 356 358 359 359 358 360 360 360 364 365 362 361 361 361 361 360 362 363
355 353 355 357 360 357 352 351 350 349 349 349 351 352 352 352 351 351 353 354 354 355 356 357 359 359 359 360 360 359 358 356 356 357 357 357 357 357 357 358 357 356 355 357 356 356 356 357 359 360 361 359 358 362 362 362 362 360 362 362 360 360 361
355 354 354 355 358 359 355 350 350 349 349 351 352 352 352 352 352 352 353 354 354 353 354 355 356 357 357 360 360 359 359 357 356 355 355 355 355 355 356 358 358 355 355 356 356 356 355 356 358 359 360 360 359 361 360 361 361 360 363 363 358 358 360
356 355 355 354 356 357 354 350 350 349 350 352 352 352 353 352 352 353 354 354 353 351 352 352 353 353 355 357 358 358 358 357 356 355 354 353 354 355 355 356 356 355 356 356 355 356 357 358 358 358 359 360 360 361 360 360 361 361 363 362 358 357 357
357 356 355 355 356 356 354 350 350 349 350 352 352 353 353 353 353 355 355 355 352 350 350 350 350 350 352 354 354 355 356 357 356 355 354 353 354 355 355 355 354 353 355 354 353 355 358 359 358 357 359 359 358 360 359 359 359 360 362 361 359 358 357
356 357 356 356 357 356 355 353 350 350 352 352 354 354 353 353 354 356 356 354 352 351 350 350 349 349 351 352 352 352 354 356 356 355 354 354 354 355 355 355 355 355 354 353 354 356 357 358 359 359 359 358 357 357 357 358 358 358 360 361 360 360 359
356 357 357 357 357 355 355 355 353 354 354 354 356 356 355 356 357 356 356 354 354 353 352 352 351 350 350 351 351 352 352 353 354 354 354 352 352 353 354 355 355 355 355 353 354 356 355 356 358 359 358 357 356 357 356 359 360 359 359 360 360 359 358
357 358 358 358 357 356 356 357 356 357 356 355 357 357 356 358 359 359 359 358 358 357 356 355 353 352 353 352 352 352 351 352 352 353 352 351 350 351 352 354 355 355 355 353 355 355 354 355 356 357 359 357 356 357 357 360 361 359 358 360 361 361 358
358 358 358 358 358 358 358 357 358 357 357 358 357 356 356 358 358 359 360 360 361 361 360 359 356 354 354 355 356 354 352 351 351 352 352 350 349 349 350 352 353 354 355 354 354 354 354 354 354 356 359 358 356 358 360 361 361 359 358 360 362 362 360
357 357 358 357 358 358 358 358 359 360 360 361 359 357 357 358 357 358 359 360 362 363 363 361 359 357 357 358 359 357 354 353 352 352 352 350 349 348 349 350 351 353 354 354 354 353 353 353 352 355 359 359 358 360 360 361 361 360 359 359 360 361 361
357 358 358 357 356 357 358 358 358 358 357 358 361 360 357 358 358 358 359 360 361 363 364 363 361 359 360 361 361 359 357 355 353 352 352 350 350 349 348 348 349 352 352 352 352 352 352 353 353 354 358 359 358 359 360 360 361 361 360 359 359 360 360
357 358 356 354 354 354 356 357 356 355 351 352 358 358 355 355 357 359 360 360 361 361 362 363 362 361 361 361 361 360 359 356 354 354 352 352 351 349 348 349 348 349 350 350 352 352 351 352 353 353 356 359 358 357 360 361 360 361 362 360 359 359 359
356 357 356 355 354 353 354 356 356 356 353 352 354 353 352 350 350 353 354 355 357 358 359 362 363 363 363 363 362 360 359 356 353 354 354 354 353 351 350 350 348 348 350 350 352 352 351 350 352 353 354 357 357 356 358 360 360 360 361 361 360 359 359
355 356 356 356 355 353 353 354 356 356 354 353 354 353 354 351 349 348 348 347 349 351 354 357 359 360 362 363 363 361 360 358 356 355 355 355 357 356 355 353 351 350 350 351 352 352 352 351 351 352 353 354 355 354 354 357 357 358 359 359 359 358 358
354 354 354 355 354 354 354 354 356 357 356 355 354 353 354 353 353 351 349 348 347 347 349 351 353 356 358 358 360 361 361 361 360 360 359 358 359 360 359 357 355 353 352 352 352 352 353 353 352 352 351 352 354 353 352 352 353 353 355 355 356 356 356
354 354 352 352 352 352 353 353 355 357 357 356 355 355 354 353 354 354 352 351 350 349 349 349 351 354 355 355 356 357 357 356 356 357 356 358 360 361 362 362 360 357 355 354 353 353 353 354 354 354 352 351 352 352 352 351 349 349 349 352 354 355 355
351 352 351 350 350 350 350 350 352 353 352 353 354 354 354 354 354 354 354 354 352 351 350 349 349 352 353 353 353 353 351 349 348 347 347 349 353 356 358 360 361 361 359 357 355 354 354 353 353 354 353 351 351 352 351 350 348 346 346 347 351 351 351
348 348 349 349 348 348 347 347 348 349 349 349 350 350 351 352 352 352 353 353 353 353 352 351 351 351 352 352 351 350 349 349 349 347 346 347 348 349 352 354 357 359 358 358 357 356 355 354 353 353 353 351 350 349 348 347 346 345 344 345 347 348 347
346 346 347 345 344 344 344 343 343 343 345 345 345 346 347 348 348 348 349 350 350 351 352 352 352 352 352 353 353 352 351 351 351 350 350 351 350 351 352 353 355 357 358 358 357 355 353 352 352 353 353 352 351 349 348 347 347 346 345 346 347 347 347
344 344 343 342 342 342 342 342 341 341 342 342 343 343 344 344 344 344 345 346 347 348 349 350 349 350 350 350 351 351 350 350 350 351 351 352 352 352 352 353 355 357 357 357 356 356 354 352 352 352 352 353 353 351 350 350 351 350 348 348 349 348 347
341 340 340 341 341 341 342 341 340 339 340 340 341 341 341 341 342 342 342 343 344 344 345 345 345 346 346 346 346 347 348 348 349 349 349 349 349 350 350 352 355 355 355 354 354 354 354 352 352 351 350 352 353 352 351 352 352 352 350 350 351 350 349
339 338 339 339 339 340 339 338 339 339 339 339 339 338 338 339 340 340 340 340 340 340 340 340 341 342 343 344 344 345 346 347 347 347 346 345 346 346 347 351 354 353 353 352 353 353 353 352 352 352 350 349 350 352 353 353 352 351 351 351 352 351 352
338 337 336 335 335 335 335 334 335 336 336 336 336 336 337 337 338 338 337 337 338 337 336 337 337 338 339 341 342 343 344 345 345 345 345 345 345 345 346 347 350 351 351 350 350 351 351 351 351 351 351 349 349 349 349 350 352 353 353 353 352 352 353
333 333 332 332 332 332 332 332 332 332 332 332 332 332 333 334 335 336 336 336 337 336 336 335 335 335 336 338 339 341 342 343 343 344 344 343 343 344 345 346 346 347 349 350 349 349 349 350 351 351 351 350 349 348 345 346 351 354 354 354 354 353 353
328 328 329 329 329 328 328 327 326 327 328 328 328 328 329 330 331 332 332 333 334 334 333 334 334 335 335 335 336 337 338 339 341 341 342 342 342 342 343 344 345 346 347 347 346 346 347 348 349 350 349 347 346 348 347 347 350 352 352 353 353 353 353
326 325 325 325 325 325 324 323 322 323 323 324 325 326 327 329 329 329 329 330 330 331 332 332 334 334 334 334 335 335 335 336 337 338 339 340 341 342 342 343 344 346 344 342 341 342 343 344 344 344 343 342 342 343 344 344 345 346 347 349 348 348 350
326 324 323 323 323 323 322 322 323 323 323 323 324 324 326 328 329 328 327 327 327 328 329 330 332 332 333 334 334 334 334 334 334 336 337 338 340 341 341 343 344 345 344 342 342 343 342 342 340 339 339 341 341 341 340 340 340 340 341 342 343 343 346
326 326 325 324 324 323 322 321 322 323 323 324 324 325 325 327 327 327 326 326 326 326 327 328 329 329 330 331 332 333 334 333 334 334 334 336 338 339 341 342 344 345 344 344 345 345 344 343 341 339 340 343 343 341 338 336 336 336 335 336 337 336 337
325 324 323 322 322 322 322 323 322 322 322 323 323 324 325 326 327 327 326 326 326 325 326 327 327 327 327 327 329 330 331 332 334 334 334 335 336 337 338 340 341 342 342 343 343 343 343 344 344 342 343 344 344 342 339 335 333 332 330 330 331 330 330
322 321 320 318 318 318 320 322 323 322 323 323 323 324 324 324 325 325 326 326 326 326 326 327 327 327 327 326 326 327 327 329 331 332 333 334 334 335 336 337 338 338 338 339 340 341 341 342 343 343 343 343 344 343 340 338 336 334 331 331 332 332 331
322 320 318 318 318 318 319 319 319 320 322 322 322 323 323 323 324 324 324 325 325 326 326 326 327 327 327 326 325 325 325 326 326 327 329 331 332 333 333 334 335 336 336 337 337 338 339 339 339 340 341 341 342 341 339 338 338 337 334 333 334 334 333
323 320 319 320 321 321 321 320 319 320 321 321 322 323 323 323 323 324 324 323 323 324 325 325 326 327 327 326 325 324 324 323 323 325 325 325 327 329 330 331 333 333 333 334 335 335 336 335 335 336 337 339 339 339 338 338 337 335 332 329 329 329 330
323 322 322 323 322 322 322 321 321 321 320 320 321 322 322 323 322 322 323 323 322 323 324 324 324 325 325 325 324 324 324 323 323 325 325 324 324 324 325 327 329 331 330 328 328 331 333 333 334 334 333 335 336 336 338 337 334 330 327 325 325 324 325
325 324 324 324 324 324 323 323 323 322 320 319 319 318 319 321 321 321 321 322 322 322 323 323 324 324 325 325 324 324 325 324 323 324 325 325 325 324 321 320 321 326 326 321 317 320 324 328 330 330 331 333 334 334 335 334 329 326 325 325 325 324 324
326 325 325 324 324 324 324 323 323 322 321 320 319 316 316 318 318 319 320 320 321 322 322 322 324 324 323 323 322 322 324 325 324 323 324 325 326 326 324 320 318 320 321 317 312 312 315 318 319 321 323 328 331 329 328 327 325 324 325 324 324 324 323
326 325 323 323 323 323 322 321 321 322 321 321 319 318 317 317 316 316 317 318 319 320 320 322 323 323 322 321 320 320 322 323 322 323 324 324 324 325 326 325 323 321 319 317 315 314 313 313 314 315 316 321 326 327 325 324 324 324 324 324 324 324 323
324 322 320 321 323 324 322 321 321 321 321 320 319 318 318 317 316 315 315 316 316 317 319 320 322 322 321 320 320 320 321 322 322 322 323 323 324 325 324 326 326 325 322 320 318 317 316 315 315 315 314 316 321 324 323 322 322 323 323 323 323 324 323

ECMWFFLT1_925_thetae_114.txt.gz
Theta_e
360 360 362 361 353 348 351 353 350 351 351 350 349 350 350 350 351 355 357 359 360 360 361 360 359 360 359 357 357 357 357 357 355 355 357 358 357 357 358 358 359 358 357 357 356 357 357 355 355 357 360 360 360 360 357 356 360 359 358 359 358 358 357
356 358 362 363 359 351 351 352 351 351 351 350 349 350 350 351 351 354 357 359 360 361 361 361 359 359 358 357 357 357 357 357 357 356 357 357 356 357 357 357 357 356 357 356 355 356 357 356 356 356 358 359 359 361 360 359 359 359 359 358 358 359 358
353 356 360 363 364 359 352 351 352 351 349 350 348 349 350 351 351 353 356 358 360 361 361 361 360 360 359 358 358 358 357 357 357 357 356 356 357 357 356 356 357 356 357 356 354 355 357 358 358 357 358 359 359 360 362 361 360 359 360 358 357 359 357
354 355 358 361 364 363 357 351 351 351 350 349 348 349 351 351 352 353 355 357 359 360 360 360 361 361 359 359 359 358 358 357 357 357 356 355 357 357 356 356 358 356 356 357 355 354 357 358 358 359 359 358 358 359 360 361 361 359 359 359 359 359 357
356 356 359 362 361 363 363 355 351 351 350 350 349 350 352 352 352 353 354 356 357 358 359 358 359 359 359 359 359 359 359 357 356 357 356 355 357 357 357 358 359 357 355 355 355 355 355 356 357 358 359 359 359 359 359 360 361 359 359 359 358 357 357
358 357 358 362 361 361 363 359 354 352 350 352 351 350 353 352 352 352 353 355 355 355 356 356 356 356 357 358 357 358 358 357 356 355 355 355 355 356 357 357 357 357 355 355 357 356 355 355 355 357 359 359 358 359 359 360 360 360 360 359 358 357 357
358 357 356 360 361 360 360 358 355 353 352 352 352 353 353 352 352 353 353 353 353 353 354 353 353 354 355 356 355 355 357 357 357 356 355 355 355 354 355 355 355 356 355 356 358 356 356 356 357 356 357 358 357 357 359 359 359 359 360 360 359 358 357
356 358 356 357 359 357 357 356 353 351 353 354 355 354 353 354 354 353 354 354 352 353 354 352 351 352 353 354 354 354 355 356 356 356 355 354 354 354 354 354 355 355 354 356 357 355 356 357 357 357 357 358 356 356 358 357 357 358 359 359 360 359 358
357 359 357 357 358 357 357 355 352 351 352 354 355 354 355 358 357 355 357 357 353 352 353 350 349 350 351 352 352 353 353 354 355 355 355 353 352 353 353 354 355 356 355 356 356 355 357 357 358 358 358 358 357 357 357 356 356 358 358 358 360 359 358
361 361 360 359 360 360 358 356 356 355 355 356 358 359 360 359 356 354 356 357 354 354 354 351 350 350 350 351 351 352 352 353 353 354 354 353 351 351 351 352 354 356 357 357 356 356 357 358 358 358 358 358 358 356 356 356 357 358 358 358 358 359 359
363 362 361 359 358 360 361 362 363 363 362 361 361 360 358 355 354 354 354 354 353 354 354 352 351 351 351 351 351 351 351 351 351 352 352 352 351 349 349 350 351 354 356 356 355 356 357 357 357 357 356 357 358 357 356 356 358 359 359 357 357 359 360
362 360 359 357 356 358 361 363 362 361 361 363 360 358 357 356 356 356 355 355 354 353 354 355 355 354 354 354 354 353 353 351 351 351 351 351 351 349 349 349 349 351 354 356 355 355 356 356 357 357 355 355 358 359 357 357 358 360 359 358 357 359 360
358 358 357 357 355 355 358 358 357 357 360 363 363 361 360 360 358 356 355 356 357 355 356 357 358 357 355 355 355 355 355 353 352 352 351 351 351 350 349 348 348 348 351 355 355 355 356 356 356 357 355 355 358 360 358 357 358 359 359 359 357 357 358
357 357 356 357 356 355 356 356 355 355 358 362 364 363 363 363 362 359 356 355 356 355 356 358 360 360 358 355 354 355 356 354 353 353 352 352 352 351 350 349 348 348 349 353 355 355 355 355 354 355 355 355 358 359 358 358 359 359 359 359 358 357 358
355 355 354 355 355 353 353 354 355 354 354 358 360 359 359 360 362 361 359 358 357 355 358 362 364 363 362 361 359 358 359 357 356 354 353 353 353 353 352 351 350 349 348 350 353 352 353 353 353 353 354 354 356 359 359 358 358 358 358 358 358 357 358
352 352 353 353 352 351 351 352 354 353 353 354 354 352 352 353 356 357 357 357 357 357 358 362 363 363 363 364 365 363 361 361 362 360 355 354 355 356 356 355 354 354 351 351 352 351 351 351 352 353 353 353 355 357 358 357 357 358 357 357 357 357 357
350 351 351 349 348 349 349 350 351 352 354 354 352 350 348 349 350 351 351 351 351 351 352 354 356 358 359 361 362 363 362 361 363 361 358 359 359 359 361 361 359 358 356 354 353 353 352 351 351 351 352 353 354 355 356 355 354 354 354 355 356 356 356
349 351 350 348 347 347 348 348 348 349 351 351 352 352 351 351 351 352 353 352 350 349 348 348 348 349 353 357 358 359 360 361 361 360 359 359 358 356 358 360 361 360 358 355 353 352 353 352 351 351 351 352 353 352 354 354 353 352 351 352 354 354 354
350 351 350 348 347 346 346 346 346 346 346 347 348 349 350 353 353 353 354 354 354 354 353 351 350 348 350 354 355 356 357 357 358 356 355 355 353 351 351 352 354 357 357 357 355 354 354 353 353 354 353 353 353 352 351 353 353 351 349 350 351 350 349
349 349 348 346 345 345 345 345 344 344 344 345 346 345 345 348 349 350 351 352 353 354 354 354 353 352 352 353 354 356 355 354 354 354 354 353 351 350 349 348 348 350 353 355 354 354 355 355 355 355 354 353 353 352 351 350 349 348 347 348 348 346 346
347 347 344 343 343 343 344 344 344 344 343 343 344 343 343 344 345 346 347 348 349 349 349 349 349 350 351 351 353 353 353 353 353 353 354 353 352 352 351 350 350 349 350 351 351 352 355 355 355 355 354 352 351 351 350 347 346 348 348 347 347 348 349
344 344 343 343 342 342 342 342 342 342 342 342 343 343 343 344 344 344 344 344 344 343 344 344 344 346 347 347 348 349 350 350 351 351 351 351 351 352 352 352 353 351 350 350 350 353 356 356 355 355 354 352 351 350 349 347 346 349 349 348 348 350 350
340 339 339 339 339 340 341 341 340 340 340 340 341 341 341 342 342 342 341 340 340 340 340 341 342 343 344 345 345 346 347 348 349 349 349 348 348 349 350 351 351 351 351 352 352 355 356 355 355 354 353 352 351 350 349 347 346 349 350 349 350 350 349
337 336 335 333 332 332 334 336 337 337 337 338 339 340 340 340 340 340 339 338 338 338 337 338 339 339 341 343 344 345 346 347 347 347 347 347 347 347 347 348 348 349 350 351 352 354 354 354 354 353 353 352 350 349 349 349 348 350 350 350 350 350 350
332 331 331 330 328 326 325 327 329 329 331 333 334 336 337 337 338 339 338 337 337 336 336 337 337 337 338 339 341 343 345 345 345 346 346 346 346 346 347 347 347 348 348 349 350 352 352 352 351 351 351 350 349 348 349 349 349 350 352 352 351 351 352
327 327 326 325 325 324 323 324 324 325 327 328 329 332 333 333 333 334 334 334 334 335 336 336 335 335 335 336 337 339 340 342 343 344 344 344 345 345 346 347 347 348 348 348 349 350 350 350 349 350 350 349 349 349 347 348 349 350 351 352 353 354 354
324 324 324 323 324 324 323 323 324 324 325 326 327 329 330 330 330 330 331 331 331 332 334 334 334 334 334 335 335 335 336 338 340 341 342 343 344 344 344 345 347 348 347 346 347 347 346 346 345 345 346 346 346 345 344 345 347 347 348 348 349 351 352
325 325 325 323 322 322 322 322 323 323 323 324 326 327 328 329 329 328 328 329 329 330 330 330 332 333 333 334 334 334 335 335 337 339 340 341 342 344 344 344 346 347 345 344 345 345 344 343 341 341 342 343 343 342 342 342 342 342 343 343 344 347 349
327 327 326 325 324 324 322 322 323 323 323 323 324 325 326 327 328 328 328 328 328 328 328 329 328 328 330 331 331 332 333 334 335 336 336 337 339 342 343 343 344 344 345 345 345 345 344 342 340 341 341 340 337 337 337 336 335 336 336 336 336 338 340
325 325 323 323 324 324 324 324 325 324 324 324 324 324 324 325 326 327 327 327 328 328 328 329 328 327 327 327 328 329 331 332 334 335 335 335 336 338 339 340 340 341 343 344 344 344 344 343 342 342 341 338 335 333 332 331 331 332 332 332 332 331 331
323 322 320 320 321 320 320 321 322 322 323 324 324 324 323 324 325 326 326 326 326 327 328 328 328 328 327 325 325 326 328 329 330 332 333 335 335 336 337 337 337 338 339 340 340 342 344 344 343 343 343 341 339 337 335 334 334 334 334 333 333 333 334
320 318 318 320 321 320 318 317 319 321 322 323 324 325 324 324 324 325 325 324 323 324 326 327 328 329 328 326 324 325 327 326 326 326 328 330 332 333 334 335 336 336 336 335 336 337 339 340 341 343 343 343 342 341 340 339 337 334 331 330 332 332 333
319 319 319 321 323 323 322 322 323 323 322 322 323 323 323 323 323 323 323 323 322 323 325 326 327 327 327 326 325 325 325 324 326 325 324 325 328 328 329 331 332 332 330 329 329 331 333 335 337 339 340 340 341 340 338 337 334 329 326 326 327 327 328
321 321 322 324 325 324 324 324 324 322 321 321 321 322 322 321 321 321 321 320 321 322 324 325 325 326 326 325 325 325 324 323 325 326 323 322 323 323 323 325 329 328 324 320 320 322 326 330 333 334 335 337 338 338 335 331 328 327 325 325 325 324 324
323 324 324 325 325 324 324 324 323 322 321 319 317 318 320 320 319 319 319 318 319 320 322 324 325 325 325 324 324 326 326 324 324 325 325 324 323 320 317 319 323 323 318 313 314 315 318 322 326 328 331 333 333 333 332 329 325 325 325 324 324 324 324
325 326 326 326 326 325 326 326 325 323 322 320 316 313 313 315 317 318 319 319 320 320 321 323 325 324 322 321 321 324 326 325 324 324 325 326 325 323 321 320 321 320 316 313 312 311 312 315 317 319 325 330 329 327 326 325 323 324 324 323 324 324 323
327 328 328 327 327 327 326 325 324 324 323 322 319 317 315 315 316 317 317 318 319 320 321 322 323 324 323 320 319 321 324 324 324 324 324 325 326 326 326 324 323 321 319 318 317 314 312 312 311 312 318 326 327 326 324 321 321 322 323 323 323 323 323
329 329 328 327 326 325 324 323 324 324 322 321 320 319 318 317 316 316 317 317 317 319 320 320 320 320 321 322 321 322 323 323 324 324 324 325 326 325 326 326 325 323 321 320 320 320 318 317 316 314 315 319 321 321 320 318 319 319 320 321 322 322 323

ECMWFFLT1_925_thetae_117.txt.gz
Theta_e
368 367 367 366 357 350 353 351 349 352 352 351 351 351 352 356 358 358 360 361 361 362 362 360 359 359 359 358 355 354 354 354 355 354 353 355 357 356 357 358 358 358 356 356 355 356 356 356 356 357 357 357 356 358 358 356 356 356 357 356 354 356 357
366 367 366 366 362 353 349 350 350 351 351 351 351 350 353 356 357 358 359 360 361 361 362 361 359 359 359 357 357 355 353 353 356 355 353 355 356 357 358 358 358 357 357 356 355 355 355 356 356 356 358 358 357 359 358 356 355 355 356 357 355 357 356
361 363 364 363 365 361 351 348 350 351 351 351 350 350 353 355 356 358 359 359 360 361 361 361 360 359 359 357 356 356 354 353 355 356 355 355 356 357 357 357 358 358 357 357 356 356 356 356 355 354 356 357 359 359 358 357 355 355 357 358 357 356 356
359 360 360 360 365 368 359 349 349 351 351 350 350 350 352 354 356 358 359 359 360 361 361 361 361 359 359 357 356 356 356 355 355 355 355 356 356 356 357 357 357 357 357 356 356 356 356 356 356 356 355 356 359 359 358 359 358 357 357 359 358 356 356
358 358 359 360 364 372 368 353 348 351 351 349 349 350 352 355 357 358 359 359 360 360 360 360 360 360 359 357 357 356 356 356 356 356 356 356 356 357 357 357 357 356 356 356 355 354 356 357 357 358 357 357 358 359 358 359 360 359 358 358 358 357 357
358 356 358 361 364 373 372 357 349 350 351 349 348 350 352 354 357 358 359 360 359 360 361 360 359 359 359 357 357 357 356 356 356 356 356 356 356 357 357 356 357 357 356 356 355 354 355 357 358 358 359 358 358 359 359 359 360 361 359 358 358 356 356
358 356 356 361 364 371 369 357 350 350 350 349 348 350 353 354 356 357 358 359 360 360 361 361 360 359 359 358 358 358 356 356 356 356 357 356 356 357 356 356 358 357 356 356 355 354 354 355 356 356 357 358 358 359 359 359 359 360 360 359 359 357 356
357 358 356 359 363 368 365 356 353 353 351 350 349 352 353 354 355 356 357 359 359 360 360 360 360 359 359 358 358 359 358 356 356 356 356 356 357 357 356 356 358 358 357 355 354 355 355 355 355 355 355 357 358 358 358 358 359 359 359 358 359 358 357
360 361 362 364 365 365 359 352 350 352 353 353 352 353 353 353 355 355 356 357 358 359 359 359 359 359 359 359 358 359 359 357 356 355 355 355 356 356 354 354 356 357 356 356 356 356 356 355 356 355 355 356 357 357 357 357 358 359 358 358 359 359 358
364 363 366 370 369 362 354 350 350 350 350 354 355 355 355 354 355 355 354 356 357 358 358 357 357 357 357 358 358 357 357 357 357 356 354 355 355 355 354 354 354 355 355 355 356 357 356 355 356 356 356 357 357 357 357 356 357 357 357 357 357 358 358
367 364 363 365 365 360 355 353 352 349 350 356 358 357 357 356 357 356 355 355 356 355 355 355 355 355 355 356 356 355 355 356 357 356 355 355 355 354 353 353 354 354 355 354 354 356 355 355 356 357 358 357 357 357 357 357 357 356 356 357 357 357 358
366 363 358 358 359 358 358 356 354 353 355 359 360 359 357 356 357 358 356 356 357 356 354 353 353 354 353 354 354 354 354 354 355 356 355 355 354 353 352 352 353 354 355 355 355 356 355 355 356 358 358 357 357 357 357 356 356 355 356 357 358 358 358
358 357 355 355 356 357 359 359 358 359 359 359 359 358 358 357 357 358 356 356 356 356 355 353 354 354 353 353 352 353 353 353 354 354 354 354 354 352 351 351 351 352 355 356 356 355 355 355 356 357 356 356 356 356 357 357 357 356 356 357 359 358 357
356 356 353 353 354 355 357 357 357 358 359 358 357 358 358 358 356 356 356 356 354 354 354 353 354 356 355 353 351 351 351 351 352 353 353 352 352 351 351 349 349 349 352 355 355 354 355 355 355 356 356 355 355 354 355 357 358 357 356 357 359 359 358
354 355 353 351 351 350 351 351 353 354 356 357 357 358 358 357 355 354 354 354 353 353 354 354 355 358 358 358 356 354 353 353 354 353 353 353 352 351 350 350 351 349 350 353 354 354 354 354 354 355 355 355 355 354 354 357 358 358 357 358 359 359 359
350 352 352 350 349 349 347 347 349 350 352 352 352 354 355 355 356 355 354 355 354 354 354 355 356 358 358 359 357 354 352 354 358 359 357 356 356 353 352 353 354 350 349 353 355 354 355 354 354 355 355 355 355 355 356 358 357 356 357 358 358 358 358
347 348 349 348 348 349 347 346 347 347 349 349 348 349 350 350 352 354 353 352 352 354 355 355 356 357 357 356 355 353 352 353 358 360 359 357 358 357 355 357 357 354 351 352 354 353 354 354 354 354 353 353 355 355 356 357 356 355 355 357 358 357 357
348 347 347 346 346 348 347 345 346 346 347 348 348 348 349 349 350 350 349 347 346 349 350 351 352 352 352 352 353 354 353 354 358 360 359 357 357 357 357 357 358 358 357 355 353 353 353 353 353 353 352 352 353 353 355 356 355 354 353 355 356 357 357
348 346 346 345 345 346 345 344 345 346 346 345 345 346 347 348 348 348 349 347 347 347 346 346 348 348 346 348 351 353 354 354 357 359 358 358 357 357 356 357 358 358 358 358 356 354 352 352 352 351 350 351 350 351 351 352 352 352 352 352 352 353 354
345 344 344 344 344 345 345 344 344 344 344 343 343 344 344 344 344 344 346 347 349 349 349 350 353 352 350 349 350 351 353 354 355 356 357 357 356 355 355 355 357 357 355 355 356 356 354 354 353 352 351 352 351 350 351 350 350 351 351 351 351 350 351
344 344 344 343 343 343 342 344 344 344 344 344 343 343 343 343 343 343 343 344 344 345 347 349 352 353 353 352 351 352 353 355 355 354 354 354 353 352 352 353 354 354 352 353 353 353 353 353 354 354 353 352 352 351 351 351 351 351 350 350 350 349 348
339 340 340 340 342 342 341 342 343 343 343 342 342 343 343 342 341 341 341 341 341 342 343 344 346 348 349 349 349 350 352 353 354 353 353 353 352 352 352 353 353 352 351 351 350 350 350 350 352 354 355 354 353 351 351 350 350 350 349 348 347 347 347
332 331 331 332 335 337 337 338 339 340 341 341 341 341 340 339 338 338 338 338 339 340 340 341 342 343 345 346 346 347 349 349 350 351 351 351 351 351 351 352 352 351 351 350 349 348 348 350 352 354 354 354 353 352 351 350 349 348 348 347 346 346 348
328 326 326 326 327 329 329 331 333 335 336 337 338 338 338 338 337 337 337 337 336 337 337 337 338 339 342 345 345 345 346 347 347 348 348 348 348 348 349 349 350 350 350 350 350 350 349 351 354 354 354 354 353 352 351 350 349 348 347 347 348 349 350
326 324 325 324 325 326 326 328 329 330 331 331 331 332 334 335 335 335 335 335 335 335 335 335 336 336 338 341 343 344 344 345 346 346 346 347 347 347 347 347 347 348 348 348 349 351 351 353 354 354 353 353 352 351 351 350 349 348 347 347 349 349 349
325 324 325 324 324 324 324 326 326 327 329 329 328 329 329 330 331 332 333 333 333 334 334 334 334 334 335 337 339 340 342 343 344 344 344 345 346 346 347 347 347 348 348 347 348 349 349 350 350 350 350 350 350 351 350 350 349 348 349 349 350 350 350
323 323 323 322 323 323 323 324 324 325 326 328 329 328 327 327 328 329 329 330 330 331 332 332 332 333 333 334 334 336 338 341 341 342 343 344 344 344 345 346 348 348 347 347 347 347 346 346 346 346 347 347 348 348 347 347 348 348 348 350 351 351 351
324 323 322 322 323 323 323 323 323 323 324 326 327 328 327 327 328 328 328 329 328 328 328 329 330 330 331 332 333 334 336 338 338 338 341 343 343 343 343 345 346 346 345 345 345 345 343 343 343 344 345 344 344 343 342 341 343 346 347 349 350 352 352
325 324 324 324 324 324 324 324 323 323 323 323 325 327 327 327 327 327 327 327 328 328 327 326 325 325 326 328 330 332 334 335 335 336 337 339 341 341 342 343 345 346 345 345 344 343 341 341 342 341 340 339 338 337 335 334 335 338 339 340 341 343 344
322 323 324 324 324 324 323 324 325 324 323 323 324 326 326 325 325 325 324 325 327 328 328 328 326 324 324 325 326 328 330 330 330 332 334 335 336 337 338 339 341 342 343 345 345 344 341 341 340 337 334 333 332 332 333 333 333 335 334 333 333 333 334
319 321 323 322 322 321 322 323 325 324 324 325 325 324 323 323 324 323 322 324 326 327 327 327 326 325 325 325 325 326 326 325 325 328 330 331 332 333 334 333 333 333 333 337 341 343 343 342 338 335 332 330 331 333 335 335 334 335 334 334 335 334 334
319 320 321 320 320 320 320 321 323 325 325 325 325 324 322 322 322 322 322 323 324 326 326 325 325 325 324 324 325 325 324 324 324 326 327 327 329 330 329 328 328 326 326 327 331 335 340 342 340 337 335 334 335 336 334 332 330 330 331 333 334 336 336
319 320 321 321 322 322 320 319 320 323 324 324 324 324 323 321 320 319 321 322 323 324 324 324 325 325 324 324 325 326 327 326 325 324 324 324 325 327 326 323 322 321 320 320 322 326 333 337 338 339 338 337 334 332 328 327 326 326 326 327 328 330 332
319 321 323 323 324 324 323 320 318 320 322 322 322 321 320 320 319 316 315 317 319 320 321 323 324 325 324 323 325 326 327 327 325 324 324 323 323 324 321 318 317 316 314 314 316 321 328 332 333 335 336 334 331 328 326 326 326 326 325 325 324 325 324
321 323 324 325 325 324 324 322 319 319 320 320 320 319 318 318 318 317 316 316 315 316 320 323 325 324 322 322 324 325 325 325 324 324 324 323 322 321 318 315 314 313 312 312 312 315 322 328 330 332 333 332 330 328 327 326 326 325 325 325 324 323 321
323 324 325 325 325 324 324 323 322 320 318 316 316 317 317 317 318 318 319 319 318 318 321 324 325 323 320 320 323 324 324 325 325 324 324 323 323 322 320 318 316 315 315 315 313 312 315 321 325 328 330 329 327 326 324 323 322 322 322 322 322 321 320
324 325 325 325 326 326 326 325 324 322 319 316 314 314 315 316 317 317 318 320 321 321 322 323 324 322 321 320 321 322 323 324 324 325 325 325 325 324 324 322 319 319 319 318 316 315 315 317 319 321 322 322 321 319 318 317 317 318 319 320 321 321 321
326 327 327 327 327 327 325 324 324 323 321 319 318 316 315 314 316 316 316 317 320 320 320 321 322 322 322 322 322 323 323 322 322 323 324 324 324 324 325 324 322 320 320 319 319 318 317 317 317 317 317 316 316 316 316 316 316 316 316 317 318 319 321

ECMWFFLT1_925_thetae_120.txt.gz
Theta_e
359 359 363 360 352 349 348 344 343 345 345 345 347 350 355 357 357 357 357 357 356 356 356 355 354 355 355 356 356 356 356 355 355 354 353 353 352 352 352 353 353 353 354 352 351 355 355 354 354 354 355 355 355 356 355 356 356 355 355 356 354 354 355
359 358 362 364 358 351 348 346 344 345 345 345 347 351 355 357 357 358 358 358 358 357 357 356 356 356 356 357 357 356 355 354 353 352 353 354 353 352 351 352 353 353 354 353 352 355 356 355 355 355 356 356 356 356 356 356 356 355 355 356 355 355 356
359 358 361 365 364 356 348 347 347 345 346 347 348 352 356 357 357 359 358 359 359 359 359 358 357 358 357 357 357 356 355 354 352 351 353 354 352 352 351 352 353 353 353 354 354 355 356 356 356 355 356 356 357 356 356 357 357 356 355 356 355 354 355
358 358 360 364 365 361 352 346 348 347 347 348 348 351 356 356 357 358 358 358 359 360 360 359 359 359 358 357 356 355 355 355 352 351 353 353 352 353 354 353 354 355 355 356 355 354 355 355 355 355 355 356 357 356 356 357 357 357 355 355 356 356 355
357 356 359 362 363 367 361 350 347 349 348 349 349 352 355 356 357 358 359 359 359 360 360 359 359 359 358 358 356 354 354 354 353 353 353 353 353 355 356 356 356 357 357 356 355 354 354 355 355 355 355 355 355 356 357 358 358 358 356 355 356 358 358
358 356 359 361 359 366 366 354 348 349 350 349 349 352 355 356 357 357 358 359 359 360 360 360 359 359 359 358 357 355 354 354 354 355 354 353 353 355 356 357 357 357 357 357 356 355 356 356 356 355 355 355 354 355 356 357 357 358 358 357 357 357 357
357 355 357 359 358 365 365 353 348 349 350 349 349 352 355 356 357 358 358 359 359 359 361 360 359 359 358 358 357 356 356 354 353 354 355 354 354 355 355 356 356 356 357 357 357 357 356 356 356 356 356 356 356 356 357 357 358 358 359 359 358 356 356
360 359 357 357 359 367 362 351 348 349 349 348 349 352 355 356 357 357 357 359 359 359 360 360 360 359 359 358 357 356 356 355 353 354 355 354 354 355 355 356 356 356 356 356 356 356 355 354 355 356 357 358 357 357 358 358 358 358 358 359 359 358 357
367 371 369 361 361 365 358 350 350 350 349 348 349 352 354 355 357 358 358 358 358 359 359 359 360 359 359 358 357 356 356 355 355 355 355 355 355 355 355 356 356 356 356 356 355 355 354 354 354 355 357 357 357 358 358 358 358 358 358 359 359 358 358
363 367 370 367 363 360 353 350 351 350 350 349 350 352 354 355 357 357 358 358 358 359 359 359 359 359 359 359 357 357 356 356 356 356 355 356 356 356 355 356 356 356 356 356 356 355 354 353 354 354 355 355 356 357 358 358 358 358 358 358 359 358 357
358 359 364 366 363 360 356 355 353 351 351 349 349 352 353 355 357 357 358 359 358 358 359 358 359 359 359 358 357 357 357 357 356 355 355 355 356 356 356 356 356 356 357 357 357 355 354 354 354 354 355 354 355 356 356 357 357 357 357 358 358 357 356
355 355 355 356 357 358 358 356 352 349 350 350 350 352 352 354 356 356 358 358 358 358 359 359 359 358 358 358 358 358 357 357 357 355 355 355 355 356 356 356 355 355 356 357 357 356 355 355 356 355 354 355 355 355 356 356 356 356 357 357 356 356 356
352 352 351 350 352 353 354 353 350 348 350 351 352 354 354 354 355 355 357 358 358 358 358 359 359 358 359 358 358 358 358 357 357 356 355 354 355 355 355 356 355 353 354 355 356 356 355 355 356 355 355 356 357 357 356 356 357 357 356 356 355 355 356
350 351 351 351 352 351 350 350 350 350 350 351 353 353 353 352 352 353 353 354 355 355 356 358 358 357 359 359 357 357 356 356 355 356 356 355 354 353 353 355 354 353 353 354 354 355 355 355 355 354 354 355 356 357 357 357 357 357 356 356 355 355 356
349 349 349 349 350 349 347 346 348 349 350 351 351 351 351 351 351 351 350 350 351 351 353 356 356 355 355 355 355 355 354 353 353 354 355 355 354 354 354 353 353 352 352 353 353 354 354 354 354 355 355 355 356 356 356 356 356 356 356 356 355 356 356
348 347 347 347 348 348 347 346 346 347 348 349 349 351 351 351 351 351 350 350 350 351 351 352 353 352 351 351 353 353 352 351 352 353 355 356 354 354 354 353 352 351 350 351 353 354 355 355 355 355 355 355 355 356 356 356 355 355 355 356 357 357 357
347 347 347 347 347 347 347 347 346 346 347 347 348 350 350 349 350 350 350 350 349 350 351 352 352 351 350 349 351 351 352 351 351 353 357 357 356 354 353 352 352 351 350 350 352 354 355 355 355 355 355 355 355 355 356 355 354 354 355 356 356 357 357
347 347 347 346 346 345 345 345 345 344 345 345 345 348 348 347 347 347 347 348 348 348 351 352 350 350 350 349 350 351 352 352 353 355 358 358 357 357 356 355 354 352 349 350 353 355 356 355 355 355 355 355 355 355 355 355 354 354 355 356 355 356 357
346 345 345 345 344 344 344 343 343 344 343 343 345 346 347 346 347 347 346 346 346 347 350 350 348 348 348 347 349 352 352 351 352 354 356 357 357 356 357 357 357 355 352 351 353 355 354 355 355 354 354 354 354 354 355 355 355 355 355 356 355 354 356
344 343 343 343 343 343 343 343 344 344 343 344 344 344 345 345 346 347 348 348 347 346 346 346 346 347 345 344 346 351 353 353 353 352 354 356 356 355 356 356 356 357 356 355 354 353 353 353 354 353 353 353 352 353 353 354 354 355 355 355 354 353 353
340 341 340 340 340 341 342 343 343 343 343 343 342 342 343 343 344 345 346 347 348 347 347 349 349 349 347 345 346 348 348 351 353 353 354 356 355 356 356 353 351 352 355 356 355 353 351 352 353 352 352 352 351 350 351 352 351 351 352 352 352 352 352
333 334 334 334 334 335 337 340 342 342 341 340 340 340 340 340 341 342 342 343 345 346 347 349 350 350 350 349 349 348 347 349 352 354 354 355 353 354 354 352 349 350 352 354 354 352 351 350 351 351 351 351 351 351 350 350 350 350 350 350 350 351 351
328 328 329 330 331 332 333 335 337 339 339 338 338 338 338 338 339 339 339 340 341 343 344 345 346 347 348 348 348 349 349 349 351 352 353 353 353 352 352 352 351 351 351 352 351 350 350 350 349 349 350 351 352 353 352 351 351 351 350 350 350 350 350
324 325 326 327 329 330 330 331 332 334 335 336 336 336 336 336 336 336 336 336 337 339 340 341 343 343 345 345 345 346 346 347 348 349 349 349 350 350 349 350 350 350 350 350 350 349 348 348 348 348 349 350 352 353 352 352 352 351 350 350 350 350 349
323 324 325 325 327 328 329 329 329 330 331 332 333 334 333 333 334 334 334 333 334 334 335 336 337 339 341 342 343 344 344 345 345 345 346 346 346 346 347 347 347 347 347 347 348 349 349 347 347 348 350 351 352 352 352 352 352 351 351 350 349 348 348
322 323 323 324 325 326 327 328 328 328 329 329 329 330 331 331 331 331 331 331 331 331 331 332 333 335 337 339 341 343 343 343 343 344 345 345 345 345 345 346 346 346 347 347 347 347 349 350 350 350 350 351 352 351 351 351 351 351 351 350 349 348 347
322 323 323 323 323 325 326 326 327 327 327 328 328 329 328 328 328 327 327 328 328 327 328 330 332 334 336 337 339 340 340 340 342 343 344 344 343 343 344 346 347 347 347 347 346 345 347 349 350 350 349 349 350 350 350 350 349 349 349 349 349 348 347
323 323 323 323 322 323 324 325 326 327 327 328 328 328 328 328 328 327 327 327 326 326 326 328 330 331 332 333 334 335 337 338 338 339 341 341 341 341 342 345 346 346 346 346 346 345 345 345 345 346 345 346 346 347 346 344 343 344 345 347 348 349 349
324 324 324 324 323 322 323 323 325 326 326 327 327 327 328 328 328 328 328 328 328 326 324 325 326 327 328 327 328 331 334 336 335 335 336 337 337 337 338 339 341 343 344 345 344 343 342 342 342 342 342 341 340 339 339 338 337 338 340 342 344 347 349
324 323 323 324 324 323 323 323 324 325 325 326 325 325 326 327 327 327 327 327 328 326 325 325 324 325 325 325 325 327 330 331 332 333 333 334 334 333 332 332 334 337 340 342 342 342 341 340 340 339 336 335 335 335 335 335 335 334 335 336 338 340 343
322 322 322 323 323 324 324 324 325 325 324 324 324 323 324 325 326 326 326 326 326 326 325 325 324 323 324 325 325 325 326 327 328 330 331 331 331 331 330 330 332 333 335 337 340 341 340 337 335 334 334 334 335 335 334 334 334 334 334 336 335 335 337
321 320 320 321 322 323 324 325 324 324 324 323 322 322 322 323 324 324 324 325 325 326 325 324 324 324 324 326 326 325 325 324 324 326 327 326 326 325 324 326 329 331 331 333 336 338 338 335 332 333 335 335 334 332 332 332 331 331 332 333 333 331 330
319 318 317 318 320 321 323 325 324 324 324 323 323 321 320 321 322 322 323 323 324 325 325 324 323 324 325 326 327 326 325 323 322 323 324 322 322 320 317 317 321 324 327 329 332 335 336 335 334 334 334 332 328 327 327 327 327 326 326 326 327 326 325
319 319 319 319 320 319 320 322 323 323 322 322 321 321 319 317 317 317 319 321 322 323 325 325 323 323 325 326 325 325 325 324 323 323 321 320 319 318 314 313 314 316 318 321 326 331 333 333 333 333 330 326 325 325 325 325 325 325 324 324 323 322 321
318 321 321 322 323 322 319 318 319 320 321 320 319 318 317 315 314 314 315 315 316 319 324 325 323 321 324 325 324 324 324 324 323 324 323 322 320 318 316 315 314 314 314 314 318 325 330 331 331 329 327 326 325 325 325 325 324 324 323 323 322 320 319
319 322 323 324 325 324 321 319 317 316 317 318 318 317 316 316 316 316 317 316 316 318 322 324 322 320 322 324 325 324 324 324 325 325 325 324 323 321 319 317 315 314 315 314 315 318 322 325 325 324 324 323 322 321 321 320 320 320 320 321 320 320 320
319 322 323 324 324 324 323 322 320 317 315 315 315 315 315 316 317 318 318 319 320 320 322 323 321 320 321 323 324 324 324 325 326 325 324 324 324 322 320 319 317 316 316 316 316 316 316 317 317 317 317 317 316 316 316 316 316 317 317 318 319 320 321
320 321 323 324 325 325 324 324 323 321 318 315 314 313 312 313 315 315 315 317 319 321 321 322 322 321 321 323 323 322 322 323 324 324 324 324 325 324 322 321 320 318 317 317 317 316 316 316 316 316 316 315 315 315 315 315 315 315 315 316 317 319 320

ECMWFFLT1_925_thetae_123.txt.gz
Theta_e
355 358 356 347 343 341 340 342 344 347 348 349 351 351 352 353 353 353 352 352 352 351 351 349 349 351 352 353 353 353 352 352 351 351 351 351 351 351 351 351 351 351 352 350 348 351 354 354 353 353 354 353 352 352 352 354 355 355 355 354 354 354 352
353 357 360 353 346 343 341 340 344 346 347 349 350 351 352 353 353 354 353 352 352 352 352 350 349 351 352 353 354 353 353 353 352 352 352 352 352 352 352 352 352 352 353 350 349 353 354 354 354 352 353 354 353 353 353 354 355 355 355 354 354 355 353
352 355 360 358 352 346 342 340 342 345 347 348 349 350 352 353 353 354 354 354 353 353 353 352 351 352 353 354 354 353 353 354 355 354 354 353 353 353 352 352 352 352 353 351 351 353 353 353 354 353 353 354 353 355 355 355 355 355 355 355 355 355 354
352 353 357 360 357 351 344 341 341 343 346 347 348 350 352 353 354 354 354 354 354 354 354 353 353 353 353 354 354 354 354 354 356 356 355 355 354 353 353 352 352 353 353 352 352 352 351 352 354 354 354 354 354 355 356 356 356 356 356 356 356 355 354
352 351 355 360 361 358 350 342 342 343 344 346 347 349 351 353 354 354 354 355 354 354 355 354 354 354 353 353 353 354 354 354 355 356 355 355 354 352 353 352 352 352 352 353 352 353 352 353 354 356 355 355 354 355 356 356 356 356 357 357 356 355 355
353 352 354 358 360 362 356 345 342 343 344 345 347 348 351 353 354 355 355 355 355 355 355 355 355 354 354 354 354 354 354 354 355 355 354 353 352 351 353 353 352 351 352 353 353 353 353 354 355 355 355 355 355 355 356 356 357 357 357 357 357 356 356
354 353 353 354 356 362 360 349 344 344 344 345 346 348 351 353 354 355 356 356 356 355 356 356 355 355 355 355 355 355 355 355 355 355 354 353 351 351 352 352 351 351 351 352 353 354 355 355 355 354 354 354 355 355 355 355 356 357 357 358 358 357 356
355 354 353 352 354 359 360 353 348 345 345 345 346 348 351 353 354 355 356 357 356 356 357 356 356 356 356 356 356 356 355 355 355 354 354 353 352 352 353 352 352 353 353 353 354 355 356 356 355 354 354 354 355 355 355 354 355 356 356 357 358 358 358
358 358 355 354 355 358 357 353 349 348 347 347 347 349 351 353 354 356 356 356 357 357 357 357 357 356 357 357 356 356 356 355 355 354 354 353 353 353 353 352 353 354 355 355 355 356 356 356 355 355 355 355 355 355 355 355 356 356 357 357 358 358 358
356 360 361 359 357 355 352 349 348 348 348 348 348 350 352 353 354 355 356 357 357 357 357 358 358 357 357 357 357 357 356 355 355 354 354 354 353 354 353 353 353 354 355 355 355 355 356 356 356 356 355 355 355 355 356 357 357 357 357 358 358 358 358
351 355 357 355 354 355 354 352 348 346 347 348 348 349 351 352 354 355 355 357 357 358 358 358 358 358 358 357 357 357 356 356 355 355 354 354 353 354 354 353 353 354 355 355 355 355 356 355 355 355 354 354 354 355 356 357 357 357 357 358 357 357 357
349 350 351 350 350 352 352 352 349 347 348 348 348 348 349 350 353 354 353 354 354 355 356 358 358 358 358 358 357 357 356 356 355 355 354 354 354 354 354 354 354 354 355 355 355 356 356 355 355 355 354 353 353 354 355 355 356 356 357 357 357 357 357
348 349 349 348 350 351 350 350 349 348 349 348 348 349 349 349 352 353 352 352 351 352 352 355 357 358 357 357 357 356 356 356 355 355 355 354 354 354 354 353 354 355 355 355 355 355 355 355 356 355 354 353 353 354 354 354 355 355 356 357 356 356 356
348 347 346 346 348 350 350 350 350 349 349 349 350 350 350 350 351 352 352 352 352 353 353 354 356 357 356 356 357 356 356 356 355 355 354 354 354 354 354 354 354 355 355 355 355 355 355 356 356 355 354 354 354 353 354 354 354 355 355 356 356 356 356
347 347 347 347 347 347 347 348 349 348 348 350 351 350 351 351 350 351 351 351 351 352 353 355 356 356 355 356 357 357 356 356 356 356 355 355 355 355 355 354 355 355 355 356 356 355 356 355 356 356 355 355 355 354 354 355 355 356 356 356 356 356 356
348 347 347 348 347 347 346 347 347 347 348 350 350 350 351 350 351 351 351 351 351 351 352 355 356 355 354 355 356 357 356 356 356 356 356 356 355 355 355 354 354 355 354 355 355 355 354 354 355 356 355 355 355 354 354 355 356 356 356 356 356 356 356
347 348 347 347 347 346 346 346 346 345 347 348 349 350 350 349 350 350 350 351 351 350 351 354 355 354 353 355 356 356 356 355 355 355 355 356 356 355 355 354 354 354 354 354 354 354 353 353 354 354 354 355 355 354 355 354 354 356 356 356 356 356 356
347 347 347 346 346 346 346 345 345 345 345 346 348 349 349 348 349 349 350 350 350 350 350 351 353 354 353 354 355 355 354 353 353 353 352 353 354 355 355 354 353 353 353 352 352 352 352 352 353 353 353 354 354 354 354 354 354 355 355 355 355 355 356
346 345 345 345 345 345 345 344 344 344 344 344 346 347 348 348 348 348 348 349 349 350 350 350 350 350 351 351 351 351 351 351 351 352 352 351 350 351 354 355 353 351 350 350 351 351 352 351 353 353 353 354 354 354 354 355 355 354 354 354 354 354 355
341 341 341 341 342 343 344 344 343 343 343 343 343 344 345 346 347 347 347 348 348 349 350 349 349 348 349 349 349 348 348 349 350 351 352 351 350 348 350 353 353 352 351 351 351 352 353 353 353 354 354 354 354 355 355 355 354 354 354 354 353 354 355
336 336 336 336 338 339 340 342 342 341 341 341 341 342 343 344 345 346 345 345 346 347 347 347 347 347 347 347 347 347 348 349 350 350 351 351 351 349 348 349 351 352 353 353 352 352 353 352 353 353 353 353 354 354 354 355 354 354 354 353 354 355 356
332 332 332 333 334 334 336 337 338 338 338 337 338 339 340 342 344 345 345 345 345 345 345 345 346 346 345 345 346 347 347 348 348 349 350 350 351 350 348 348 349 352 353 352 350 351 353 352 352 352 351 352 352 352 352 353 353 353 354 354 355 356 356
328 329 330 331 331 332 333 334 335 335 335 335 336 336 337 339 341 343 344 344 344 344 344 345 345 345 346 346 346 346 346 347 348 349 350 351 351 350 350 350 350 352 352 350 348 351 352 352 352 351 351 351 351 351 351 351 351 351 352 352 353 353 353
325 326 328 329 330 330 331 332 332 333 333 334 334 334 335 336 337 338 338 339 341 342 342 343 343 344 344 345 345 345 346 346 348 348 349 350 350 348 349 350 350 351 351 350 349 350 351 352 352 351 350 351 351 350 350 350 351 351 350 350 350 350 350
323 325 326 327 328 329 329 330 331 331 331 331 331 332 333 334 334 333 332 333 336 337 338 339 340 342 343 343 343 344 344 344 345 346 346 346 346 346 347 348 348 349 349 349 349 350 350 350 351 350 350 350 350 350 350 351 352 352 351 350 349 349 348
323 324 325 325 327 327 328 329 329 329 329 329 329 330 331 331 331 330 329 330 332 333 334 335 337 339 341 342 342 342 342 342 343 344 344 345 345 345 346 346 347 346 347 347 347 348 348 349 349 349 349 349 349 348 349 349 350 350 351 351 350 349 349
323 323 323 324 325 326 327 327 327 327 327 328 328 328 328 328 328 327 327 328 329 329 330 332 334 336 338 339 340 340 340 341 342 342 343 343 343 343 344 345 345 345 346 346 346 346 347 347 348 349 349 349 348 348 348 348 348 349 350 350 349 349 348
323 323 323 324 324 325 326 326 326 327 326 327 327 327 327 327 327 327 327 327 327 327 327 328 330 333 335 337 337 337 337 338 339 340 339 339 340 341 342 342 344 346 346 346 346 346 345 345 346 347 347 347 346 346 345 345 345 346 347 347 347 347 347
323 322 323 324 323 324 325 325 325 325 324 325 326 326 326 326 326 326 326 326 327 327 326 326 327 328 331 333 334 334 334 335 335 335 334 335 336 338 339 340 342 344 345 346 345 345 344 344 344 344 343 342 341 340 339 340 342 343 343 343 344 345 345
322 322 323 324 324 324 324 324 323 323 323 323 324 324 325 325 325 324 324 325 326 326 325 325 325 325 327 329 330 331 331 332 332 331 330 331 332 333 335 336 338 340 342 343 343 343 342 341 341 340 338 336 336 336 336 337 338 338 339 339 339 340 341
321 322 323 323 324 324 323 323 323 322 322 322 322 322 323 324 323 323 323 324 325 325 324 325 325 325 325 326 326 327 327 327 327 326 325 325 327 329 331 333 335 337 338 339 340 340 339 337 337 337 335 333 332 332 333 334 335 335 336 336 336 337 338
321 321 323 323 324 324 323 323 322 322 321 320 320 320 321 322 323 321 321 323 325 324 323 324 326 326 326 325 324 323 323 323 323 323 322 321 321 323 326 329 332 334 335 337 338 337 336 335 335 334 332 329 327 327 328 329 330 330 331 331 331 332 332
319 319 320 320 321 323 324 323 323 322 322 321 320 319 317 318 319 320 320 322 323 324 324 323 325 326 326 325 324 323 322 321 320 320 319 318 317 318 321 323 327 331 334 335 335 335 334 334 334 331 327 325 324 324 324 324 324 324 324 324 323 323 323
318 318 319 319 319 320 321 323 323 323 321 320 318 317 315 313 313 316 317 318 319 322 323 323 323 325 325 325 324 323 320 319 318 318 317 316 315 315 316 318 321 327 331 333 333 333 333 332 329 326 324 323 323 323 324 325 324 324 323 322 321 320 319
318 319 321 322 322 320 318 319 320 320 319 318 317 316 315 313 312 313 315 315 315 318 321 322 323 324 324 324 323 321 320 320 320 319 317 317 316 314 315 317 320 323 326 330 332 332 332 331 328 325 325 325 323 322 323 323 323 323 321 320 320 319 318
317 319 321 323 324 323 320 319 317 314 315 316 316 316 317 316 314 313 315 316 316 317 319 322 322 323 324 324 323 323 323 322 321 320 319 318 317 316 316 318 321 322 322 324 325 326 326 326 325 324 324 324 323 320 319 317 317 318 317 317 318 319 319
318 319 321 323 324 323 322 321 319 316 314 312 312 313 314 315 315 315 315 317 319 320 321 321 320 321 323 323 323 324 325 324 323 322 320 319 318 317 317 317 319 321 320 318 317 317 317 317 318 317 317 317 317 317 316 313 313 314 315 314 315 317 318
318 318 319 323 325 324 323 323 322 321 318 314 311 310 310 310 312 313 314 314 317 319 321 321 320 320 321 322 323 323 323 324 324 323 323 321 319 318 318 317 318 318 318 316 315 315 315 315 315 315 315 315 315 316 315 314 313 313 314 313 314 316 318

ECMWFFLT1_925_thetae_126.txt.gz
Theta_e
354 356 352 344 339 338 340 341 342 344 346 346 347 348 348 348 348 348 349 349 349 349 350 350 350 350 350 351 350 350 350 351 352 352 350 349 349 348 348 348 348 348 348 349 348 348 346 345 345 347 349 350 352 353 352 350 351 353 354 354 354 355 354
354 356 354 345 339 338 339 340 343 344 346 347 348 348 348 348 349 349 349 349 349 350 350 350 350 350 350 349 350 350 351 351 352 352 351 351 350 350 349 349 349 349 349 350 349 350 347 344 346 349 349 350 352 353 353 352 351 352 354 355 354 354 354
352 355 355 348 341 339 338 340 343 344 345 347 348 348 349 349 349 350 349 349 350 350 350 350 350 350 349 348 349 351 351 351 352 352 351 351 351 351 350 350 350 350 350 350 350 351 350 346 347 351 353 352 352 353 353 353 353 352 353 354 355 354 354
351 354 356 350 344 340 339 339 342 344 345 347 348 348 349 349 349 350 350 350 350 350 350 350 350 350 348 348 349 351 351 351 351 352 352 351 351 351 351 351 351 351 351 351 350 351 351 348 348 352 354 353 352 353 353 353 353 354 354 354 355 354 354
351 352 356 354 348 344 342 339 341 344 345 346 348 349 349 350 350 350 351 351 350 350 350 350 350 350 349 348 349 350 351 351 352 352 352 352 351 351 351 351 351 351 351 351 351 352 352 350 350 352 353 353 353 353 353 353 354 355 355 355 355 355 354
352 350 354 356 353 350 346 339 339 343 345 346 347 348 349 350 350 351 351 351 351 350 350 350 350 351 350 349 349 350 351 351 352 353 352 352 352 352 352 352 353 352 352 352 351 351 352 351 351 352 351 352 353 354 354 354 354 355 355 356 356 356 356
356 352 352 354 355 355 350 342 339 341 343 345 346 348 349 350 350 351 352 352 352 352 351 351 352 352 351 350 350 350 351 351 352 353 352 352 353 354 354 354 353 353 352 352 352 351 352 352 352 352 351 352 353 355 355 354 354 354 355 356 357 357 357
358 357 356 355 356 356 352 346 343 342 343 344 345 346 348 350 351 351 352 353 352 352 352 352 352 353 352 352 351 351 352 352 352 353 352 353 353 354 355 355 354 353 352 352 352 352 352 352 352 352 352 353 354 354 355 354 354 355 355 356 357 357 357
353 356 356 355 355 352 348 346 345 344 344 344 344 345 347 349 351 352 352 352 353 353 353 353 352 353 353 353 353 352 352 353 353 353 353 353 353 354 355 354 353 351 351 352 352 351 352 352 353 353 354 354 354 354 354 354 354 354 355 355 356 356 356
351 352 352 353 356 352 346 346 346 346 345 345 344 345 346 348 350 352 353 353 353 353 353 353 353 353 354 354 353 353 353 353 353 353 353 353 353 353 354 353 351 351 351 352 352 351 352 353 354 355 356 355 355 354 354 354 354 354 354 354 355 356 356
349 350 351 351 355 356 353 350 348 347 346 346 346 345 346 348 349 351 352 353 354 354 354 354 354 354 355 354 354 354 354 354 354 354 354 353 353 352 353 353 351 351 352 352 352 352 353 354 354 355 356 356 356 355 355 355 355 355 355 355 355 356 356
348 349 350 349 351 355 357 355 349 347 347 346 347 346 346 347 349 350 352 352 353 354 355 355 355 356 356 355 355 355 354 354 355 354 354 353 353 352 352 353 351 352 352 352 352 353 353 354 354 355 355 355 356 355 355 355 354 354 355 356 356 356 356
347 348 347 348 349 350 354 354 350 347 347 347 347 346 347 347 348 349 351 352 353 353 354 354 355 356 356 356 356 355 355 355 355 355 354 353 352 352 352 352 352 352 353 352 353 353 353 354 354 354 355 355 355 355 354 354 353 353 354 355 356 356 356
347 347 345 346 346 347 349 350 349 347 346 347 347 347 347 347 347 348 350 351 352 353 354 354 355 356 356 356 356 356 356 356 355 355 355 353 353 352 352 352 352 353 353 353 353 353 353 354 354 354 355 355 355 355 355 354 353 353 353 354 355 354 355
348 347 347 347 346 346 348 348 348 347 346 347 348 348 347 347 347 348 349 351 352 352 354 354 354 354 355 356 355 356 356 356 356 356 355 354 353 353 353 353 353 353 353 353 353 353 354 354 354 355 354 355 355 355 355 355 353 353 353 353 354 354 354
348 347 346 347 346 346 346 346 346 346 346 348 349 349 348 347 347 348 349 350 351 352 353 354 354 353 354 354 354 355 356 356 356 356 355 354 354 353 354 353 353 354 353 353 353 353 354 354 354 355 355 355 355 355 355 355 354 354 353 353 354 354 355
346 346 345 345 346 346 345 345 345 344 345 346 348 350 350 349 348 348 348 350 351 352 353 353 353 352 352 353 352 354 355 354 354 356 355 355 355 354 354 353 353 354 353 353 354 353 354 354 354 355 355 355 355 355 355 355 354 354 354 353 354 355 355
344 343 342 343 344 345 344 344 344 343 344 344 345 347 349 349 349 349 349 350 350 352 352 351 352 352 352 352 352 354 354 351 352 355 355 355 355 354 354 354 354 354 353 352 352 352 353 354 354 354 354 355 355 354 354 354 353 353 354 354 353 354 355
341 339 339 340 341 342 342 342 341 341 341 341 342 343 345 347 349 349 350 350 350 351 351 350 350 351 351 351 351 353 352 350 350 353 354 355 355 354 354 354 354 354 353 353 352 351 351 352 352 352 352 353 353 353 353 353 353 353 353 354 353 354 355
336 336 336 337 337 338 338 339 338 338 338 339 339 340 342 344 346 348 349 350 350 350 350 350 349 349 349 349 349 350 351 351 351 350 349 351 352 353 353 353 353 353 352 351 351 351 350 350 351 351 351 351 351 352 353 353 353 353 353 353 354 354 355
333 334 334 334 334 335 335 335 336 336 336 336 337 338 340 341 344 346 347 347 347 347 348 348 348 347 347 347 347 348 349 350 351 348 346 346 347 348 350 352 352 350 349 349 349 349 349 350 350 350 351 351 350 351 352 352 352 353 353 353 354 354 355
330 331 331 332 332 332 332 332 333 333 333 333 334 335 336 338 341 343 344 345 345 344 345 345 345 345 346 346 345 346 346 346 346 346 346 346 345 344 347 350 350 349 348 349 349 349 349 349 349 349 350 351 352 352 353 353 353 353 354 354 354 354 354
327 327 328 329 330 330 330 330 330 331 331 331 331 332 333 335 338 339 340 341 342 343 343 344 344 344 345 345 345 345 345 345 345 346 347 347 347 347 348 349 349 348 349 349 349 350 350 349 348 347 350 351 352 352 352 351 352 352 352 353 353 353 354
325 326 326 326 328 328 328 329 328 328 329 329 329 329 330 332 334 335 335 335 336 338 339 341 342 343 343 344 344 344 345 345 345 346 347 347 348 347 347 348 348 349 350 350 351 350 350 350 348 347 349 351 351 351 351 350 351 351 350 351 351 351 351
324 324 325 325 326 326 326 327 327 327 327 327 327 328 328 329 330 331 330 330 331 332 333 335 338 341 342 342 342 343 344 345 345 345 346 346 345 344 344 345 346 347 349 350 351 350 350 350 349 349 349 350 350 350 350 350 350 350 350 350 351 350 349
322 323 325 325 325 326 326 327 326 326 326 326 326 327 327 328 328 328 327 328 328 329 329 331 334 338 340 341 341 341 342 343 343 344 344 344 344 343 343 344 345 346 346 348 349 350 349 349 349 350 350 350 350 350 350 350 349 349 349 350 350 350 350
323 323 324 325 326 326 326 325 325 324 324 325 326 326 326 326 327 326 326 326 326 327 328 332 335 337 338 339 339 339 340 340 341 342 342 342 343 343 343 344 345 345 345 346 346 347 348 348 348 348 349 348 348 349 348 348 348 348 348 348 348 348 348
323 323 324 325 325 325 325 324 324 324 324 324 325 325 325 325 325 325 325 326 326 326 328 332 335 335 335 336 335 335 335 336 337 338 338 339 339 340 341 342 343 343 344 345 345 345 346 346 346 346 346 346 345 346 345 345 345 344 344 344 344 344 345
322 322 324 324 324 324 324 323 322 322 322 323 324 324 324 324 324 324 324 325 325 325 326 329 332 332 332 333 333 332 332 332 332 332 333 334 335 336 338 339 340 342 343 344 345 345 346 345 345 344 343 341 340 340 340 339 338 338 339 339 340 340 341
322 322 323 323 323 323 323 322 321 321 321 321 321 322 323 323 323 323 323 324 325 325 325 326 327 329 330 330 330 330 329 328 329 329 329 330 331 332 334 335 337 339 341 342 344 344 343 342 341 340 338 336 336 335 335 335 334 334 335 335 336 337 338
322 323 323 323 323 322 321 321 320 319 319 319 318 318 320 322 322 321 321 323 324 325 326 326 325 325 325 325 324 324 324 324 324 324 324 325 327 329 331 333 335 337 338 339 340 340 339 337 336 335 333 331 330 330 330 330 331 330 329 329 330 331 331
321 323 323 323 323 323 322 321 320 319 319 317 315 314 314 317 319 318 318 320 323 324 325 326 326 324 323 322 321 321 320 321 320 319 319 320 322 325 328 332 335 335 335 337 337 336 336 333 331 331 329 326 324 324 324 325 325 324 323 322 322 322 322
320 320 319 321 321 322 322 322 321 320 318 316 315 314 312 313 314 315 316 318 320 322 324 324 325 324 323 322 321 320 319 318 317 316 316 316 318 322 327 332 334 334 333 334 333 333 332 330 328 327 326 324 323 323 323 323 323 324 324 324 323 321 318
318 317 318 319 319 319 319 319 319 319 318 316 316 316 315 314 313 313 314 315 316 319 322 323 323 323 322 321 321 321 320 319 317 316 315 315 316 318 324 329 332 332 331 330 330 328 327 326 325 325 324 324 324 325 324 324 324 324 323 322 322 320 318
317 319 321 321 321 320 320 319 317 316 315 315 315 315 315 315 315 314 314 315 317 319 321 322 323 323 322 322 322 322 322 321 319 318 317 317 316 317 320 324 326 327 327 327 327 326 325 324 324 324 323 324 325 324 322 321 320 317 315 315 316 316 316
317 320 322 322 323 323 322 322 321 317 314 313 313 312 312 313 313 313 313 315 318 320 320 320 322 322 323 324 324 323 322 322 321 319 318 318 318 318 318 318 318 319 320 320 320 320 321 320 320 319 319 319 319 318 317 316 314 313 312 312 313 313 313
317 319 320 322 323 323 322 324 324 322 320 317 314 312 310 310 310 311 310 312 317 321 321 320 320 321 322 323 323 323 323 323 322 321 319 318 318 318 318 317 315 315 315 315 315 315 316 316 316 316 315 315 315 315 314 314 313 313 313 312 313 314 315
318 318 319 321 322 323 323 324 324 324 324 322 318 315 313 312 312 311 309 309 313 319 321 321 320 321 321 321 322 322 322 322 323 322 321 319 318 318 318 318 317 315 315 315 315 315 315 315 316 316 316 316 316 315 314 314 314 314 316 317 318 319 319

ECMWFFLT1_925_thetae_129.txt.gz
Theta_e
352 351 347 343 342 340 342 346 347 348 349 349 349 349 349 350 350 352 352 351 349 348 348 348 348 349 349 350 351 351 351 351 350 350 350 351 351 349 346 344 343 345 346 347 347 348 347 345 344 345 344 341 342 349 353 353 352 352 353 355 355 355 355
353 352 349 344 342 340 342 345 347 348 349 349 349 350 349 350 351 352 352 351 350 349 348 348 348 349 349 350 351 351 351 351 351 350 351 351 351 350 347 345 345 345 347 347 348 349 348 347 345 345 345 343 346 350 350 352 352 353 354 353 354 356 355
353 353 352 347 343 340 341 344 346 348 348 348 349 350 350 350 351 351 352 352 351 351 350 349 348 349 350 350 351 351 351 351 351 351 352 352 352 352 350 348 348 348 348 347 348 349 349 349 348 347 346 345 349 350 349 351 353 353 353 352 355 357 356
353 354 354 352 347 341 341 343 345 347 348 348 349 350 350 351 351 350 351 351 352 352 352 350 350 350 351 351 351 351 351 352 352 352 353 354 353 353 352 351 350 350 349 349 349 350 349 350 350 350 347 345 349 351 351 352 353 353 353 353 355 357 356
352 353 355 354 350 344 342 343 345 346 348 349 350 350 351 351 351 351 351 352 352 352 351 351 351 353 353 352 352 353 352 352 352 352 352 353 353 353 352 352 352 351 351 350 350 350 350 350 350 351 349 347 349 353 353 352 352 353 353 354 356 358 358
351 353 355 355 353 348 345 344 345 347 349 350 351 351 351 351 351 351 352 352 352 352 352 352 352 353 354 353 354 353 352 352 351 350 351 351 352 352 353 353 353 353 352 351 351 351 350 351 351 351 351 350 352 355 355 354 354 355 355 354 356 357 358
351 351 353 355 354 352 349 345 344 346 348 350 351 351 352 352 352 353 353 353 353 353 353 353 353 354 354 354 354 354 352 351 351 350 351 352 352 352 353 353 352 352 353 352 352 352 352 351 352 352 351 352 354 355 355 354 354 356 356 355 355 356 357
351 351 351 352 353 353 352 349 346 346 347 348 351 351 351 353 353 354 354 354 354 353 353 353 353 354 354 354 354 354 353 352 352 351 352 353 354 354 354 354 353 352 352 353 353 353 353 353 353 352 352 353 354 354 355 354 353 356 358 357 357 357 357
350 351 351 352 353 353 352 349 346 347 347 348 350 351 352 353 354 354 355 355 355 355 354 354 354 354 355 355 354 354 354 354 353 352 352 354 355 355 355 355 355 353 353 355 356 355 353 353 354 353 351 352 353 353 354 354 354 357 358 357 356 357 358
350 350 350 351 352 352 350 348 346 348 349 347 347 350 352 353 354 354 355 355 355 355 355 354 354 355 355 356 355 355 355 355 355 354 354 354 354 355 355 355 355 355 355 356 356 356 354 352 354 353 351 352 353 353 354 356 356 357 357 356 356 357 358
349 350 350 349 349 350 350 350 348 348 349 347 347 348 352 353 353 354 355 355 354 355 355 354 353 354 355 356 356 356 356 356 356 355 355 354 354 355 355 355 356 356 356 356 356 356 355 354 353 353 351 353 354 355 355 356 356 356 357 358 358 357 359
347 348 349 349 348 349 350 351 349 347 347 347 348 348 349 351 352 353 354 355 355 354 354 354 353 353 355 355 356 357 356 356 356 356 356 355 355 355 355 355 355 356 355 356 355 355 356 355 355 354 354 354 355 356 356 356 356 355 356 357 358 358 358
347 347 347 347 348 347 348 350 349 348 346 346 347 348 350 351 352 352 352 353 353 353 354 353 353 353 352 352 354 356 356 354 354 356 356 356 356 356 356 355 355 355 355 355 355 355 356 356 356 356 356 356 356 357 356 355 355 355 355 356 357 358 358
347 348 346 346 346 346 347 348 349 349 348 347 347 348 348 349 351 353 353 352 351 352 354 353 353 353 352 350 352 355 355 354 354 356 356 357 357 356 356 356 355 355 355 355 356 356 356 356 356 356 357 357 357 356 356 356 356 356 355 355 356 357 358
346 347 347 347 346 346 347 347 347 348 348 349 348 348 348 347 348 350 352 353 353 352 353 354 353 353 353 353 352 353 354 354 355 356 356 356 357 356 356 356 356 355 355 355 355 355 355 356 355 356 357 357 357 356 357 357 357 357 356 355 355 356 358
344 345 346 346 346 346 345 345 346 346 346 347 347 347 349 349 348 348 349 351 353 353 352 353 354 353 354 354 354 354 354 353 353 355 356 356 355 355 356 356 356 355 355 355 355 355 356 356 355 356 356 357 357 357 357 358 357 356 355 355 355 356 357
342 343 344 343 343 343 342 341 342 342 343 343 343 344 346 347 349 349 348 349 350 351 352 352 353 355 354 354 355 355 355 353 353 355 356 356 355 355 355 355 356 356 356 355 356 356 355 355 356 355 355 356 357 358 358 358 356 354 354 355 354 355 356
341 341 341 340 339 339 339 338 339 339 339 339 340 341 342 344 346 348 349 349 348 348 349 350 351 353 354 354 354 355 354 353 352 354 356 355 354 354 355 354 354 355 355 355 356 355 355 355 356 356 355 356 357 357 358 358 356 354 354 354 354 354 355
339 338 338 338 337 336 336 336 337 337 336 336 337 337 339 340 343 346 348 349 349 349 349 349 350 351 352 353 353 353 352 351 351 353 354 352 350 350 353 353 353 354 354 354 354 354 354 354 355 356 355 355 356 356 357 357 356 354 352 353 353 353 354
336 336 335 335 334 333 334 335 335 335 334 333 334 335 336 338 341 344 346 347 348 349 349 350 350 351 351 351 351 351 351 351 351 351 351 350 348 348 350 351 353 353 353 354 354 353 353 353 353 354 353 353 354 354 355 356 355 353 352 352 352 353 353
334 334 333 332 332 332 332 333 333 333 332 332 332 333 335 336 337 339 340 342 344 345 346 348 348 349 350 350 350 350 349 349 349 348 348 348 347 348 348 348 350 351 352 352 352 351 351 352 352 352 352 353 354 354 355 355 354 353 352 352 352 353 353
331 331 332 331 331 331 331 330 330 330 331 330 331 331 332 333 335 336 337 338 339 341 343 345 345 347 348 348 348 348 348 348 347 346 346 346 346 347 346 345 347 350 350 349 348 346 346 348 350 350 351 351 352 352 352 352 351 350 350 351 352 352 353
328 329 331 330 330 329 329 329 329 329 329 329 329 330 330 330 332 334 335 335 336 338 340 342 343 344 345 346 346 346 346 346 346 345 345 345 345 346 345 344 345 347 345 344 344 345 344 346 348 349 349 349 350 349 349 349 348 348 348 350 351 352 352
328 329 330 329 329 329 328 328 328 327 328 328 328 329 328 328 330 331 332 333 335 336 337 338 340 341 343 344 344 344 345 344 344 345 345 345 345 345 344 344 344 344 342 341 342 344 344 345 347 348 347 347 348 347 347 348 349 348 348 349 349 350 350
329 329 329 329 328 327 327 327 327 326 326 327 328 328 327 327 328 329 330 332 334 334 335 336 337 338 339 341 342 343 343 343 343 344 344 344 344 343 343 344 344 343 343 343 343 344 345 345 346 346 346 346 346 346 346 348 349 348 348 348 348 348 349
328 329 329 329 328 327 326 326 325 324 325 325 326 327 326 326 326 326 328 330 331 333 333 334 336 337 338 339 340 340 340 341 341 341 342 343 343 343 343 343 344 343 343 344 345 345 346 347 347 347 347 347 348 348 348 349 349 349 348 348 348 348 348
327 328 329 328 327 327 326 325 324 323 323 323 324 326 326 326 326 326 327 327 329 330 331 332 334 335 335 336 336 336 336 336 336 337 338 338 339 341 341 342 343 343 343 344 344 344 345 346 346 347 347 346 347 348 348 348 348 347 347 346 346 347 347
328 328 328 328 327 326 325 324 323 322 321 322 323 324 325 326 327 327 327 326 327 328 329 331 331 331 331 331 331 331 331 331 331 332 333 333 335 337 338 338 339 340 342 343 344 344 344 344 345 345 344 343 344 344 344 344 344 344 344 343 343 343 343
329 328 328 327 326 325 324 323 321 320 319 319 321 322 324 325 327 327 327 326 327 327 328 328 327 327 326 326 326 326 326 325 326 326 327 328 329 331 334 336 337 338 339 341 343 344 343 343 343 342 340 338 339 339 338 338 338 338 339 339 339 339 339
327 328 327 327 326 324 323 323 321 319 317 316 316 318 320 323 325 326 326 326 326 325 325 324 323 323 323 322 322 322 321 321 321 321 322 323 323 326 331 334 336 337 338 339 340 341 340 340 338 336 334 332 332 332 332 333 334 334 334 334 335 334 333
326 327 326 326 325 324 323 323 322 320 318 316 314 314 315 318 321 322 324 325 325 324 324 323 323 322 321 320 320 319 318 318 318 318 319 320 322 327 332 334 334 334 335 336 336 336 335 334 333 331 329 327 325 325 326 327 327 327 328 328 327 326 323
326 326 325 325 325 324 323 323 321 320 320 318 316 315 314 314 316 319 321 322 323 324 324 323 323 322 321 321 320 320 319 318 316 316 317 320 325 331 334 333 332 333 333 333 333 332 331 329 328 327 326 323 322 322 323 323 322 322 322 322 321 321 319
324 324 323 323 323 322 322 322 321 321 320 318 316 315 315 314 315 318 320 321 322 323 323 322 322 322 322 322 322 322 320 318 316 315 316 319 324 330 333 332 332 331 331 329 328 328 328 326 325 325 324 323 323 323 323 322 321 319 317 317 317 317 317
323 322 322 321 321 321 322 321 320 320 320 317 312 311 312 313 314 316 319 321 321 322 324 324 322 323 323 323 322 322 320 318 317 317 316 316 319 324 327 328 329 328 327 326 325 325 325 324 323 322 322 322 322 322 322 320 318 316 314 313 313 313 314
323 323 324 323 322 322 323 321 319 319 319 316 311 309 310 311 311 312 317 321 321 321 323 325 324 323 325 324 322 322 321 319 318 318 318 316 316 316 318 320 321 321 321 321 321 321 321 320 320 318 317 317 318 318 317 317 315 314 313 313 313 314 314
323 323 324 324 323 323 324 323 322 322 320 315 312 312 312 312 310 309 313 318 321 321 321 324 325 326 326 326 325 323 322 321 319 319 318 318 317 315 314 315 315 316 316 316 316 316 316 317 317 316 315 315 315 315 314 314 314 314 315 317 318 319 318
322 323 323 323 324 325 326 325 325 325 323 319 316 315 314 314 314 312 310 313 318 320 321 323 325 326 326 327 326 324 323 323 322 320 319 318 318 317 316 315 315 315 315 315 315 315 316 316 317 316 316 316 316 315 315 315 316 317 319 321 322 322 321
318 319 320 320 322 324 326 326 326 326 325 323 320 318 317 316 317 316 314 312 313 316 319 321 323 324 324 325 324 323 323 323 323 322 321 320 318 317 317 317 317 316 315 315 316 316 317 318 319 319 320 320 319 319 319 319 320 321 322 323 323 323 323

ECMWFFLT1_925_thetae_132.txt.gz
Theta_e
353 353 350 349 348 345 345 347 347 348 349 351 352 352 351 351 352 353 354 356 358 360 361 360 358 357 357 357 357 357 357 356 354 353 353 352 351 351 350 349 348 349 348 348 349 350 351 351 350 348 350 352 353 353 355 358 359 358 358 360 360 359 360
354 354 352 349 348 347 346 348 348 349 350 352 352 352 351 351 353 355 356 357 358 358 360 360 359 358 357 357 357 358 358 357 356 355 354 353 353 353 352 350 348 349 349 348 349 350 351 353 353 351 352 353 352 352 354 357 359 358 358 360 360 361 362
352 355 355 352 349 348 347 347 349 349 350 351 351 351 351 352 354 356 357 358 358 357 358 359 359 357 357 358 358 358 358 357 357 356 354 353 354 353 353 352 350 349 349 349 349 351 352 353 353 353 352 353 352 352 353 355 357 357 358 359 359 360 362
352 355 358 356 350 348 349 349 349 350 350 350 351 350 351 353 354 356 357 357 356 357 356 357 357 356 356 357 358 358 359 358 357 356 354 353 353 353 352 353 352 350 350 350 350 351 352 352 353 354 354 354 352 352 354 355 356 357 358 359 358 359 361
354 354 358 358 352 348 348 349 350 350 350 350 351 351 351 353 354 355 357 356 355 355 354 355 355 355 355 356 356 357 358 358 357 356 355 353 354 354 353 353 353 353 352 352 352 352 354 354 353 353 355 356 353 352 353 355 356 357 358 359 358 358 359
354 353 357 358 356 352 350 348 348 349 349 350 352 352 352 352 354 354 355 355 354 353 354 354 353 354 355 355 355 355 357 358 357 357 355 355 354 354 355 354 354 354 354 354 353 353 355 355 353 353 354 355 353 351 352 355 356 356 357 358 358 358 357
353 353 354 356 357 358 355 350 347 347 349 349 351 353 352 352 353 354 354 355 356 355 356 356 353 353 355 355 355 355 355 356 357 356 356 355 354 355 355 355 355 355 355 355 354 354 355 355 354 353 353 354 353 351 352 354 357 357 356 359 359 359 358
352 353 353 353 355 356 355 352 349 347 348 350 352 353 353 353 354 354 355 355 356 357 358 357 355 354 355 356 355 355 355 355 356 356 355 354 353 354 354 354 355 356 355 355 355 355 355 355 355 354 353 354 353 353 353 355 358 358 356 358 359 359 358
352 352 352 352 353 354 354 351 349 348 349 350 352 352 352 354 355 355 357 357 357 357 359 358 356 355 357 358 357 355 355 355 355 355 355 354 352 352 352 352 353 355 356 355 355 355 355 356 356 355 355 355 354 355 356 356 358 358 357 358 359 360 359
352 351 351 351 352 353 352 350 348 350 351 350 350 352 353 355 356 357 358 359 358 359 359 359 357 356 358 359 358 357 355 355 355 355 355 354 352 351 351 351 351 354 355 354 354 354 355 356 356 357 357 357 356 356 357 357 357 358 357 358 359 360 360
351 351 351 351 351 351 351 349 348 350 353 354 353 352 352 354 356 357 357 359 359 359 359 359 358 357 358 359 359 358 356 355 354 354 354 354 353 351 351 350 350 351 353 354 353 353 355 356 356 357 358 358 357 357 357 357 357 358 357 357 358 358 359
350 351 351 351 351 350 350 350 350 350 352 354 355 353 352 353 355 355 356 357 358 358 359 359 359 359 358 359 360 359 359 356 354 355 356 355 354 352 351 351 351 351 352 353 353 352 354 356 356 357 358 358 357 356 357 358 357 358 359 357 357 358 359
349 350 349 349 350 350 350 351 350 350 349 350 352 351 351 353 354 354 354 356 357 357 358 359 359 359 359 359 360 359 359 357 355 355 355 355 356 354 353 352 351 351 351 351 352 352 353 354 356 357 357 358 357 355 357 358 359 360 361 359 357 358 358
349 350 349 349 349 348 349 349 349 349 349 350 349 347 347 347 348 349 350 352 354 353 354 357 360 360 360 360 360 359 358 357 357 357 356 357 359 358 356 355 353 353 352 352 351 351 351 353 354 356 356 356 357 356 355 357 359 361 361 361 359 358 359
348 348 347 346 346 345 345 345 346 347 347 347 347 347 347 346 345 345 346 348 351 352 351 353 356 360 360 359 359 359 358 358 359 358 357 357 356 355 357 357 355 354 354 354 353 351 350 351 353 355 356 355 356 356 356 356 358 359 360 360 360 359 358
345 344 343 342 342 341 341 341 342 343 343 344 343 344 345 346 346 347 349 350 352 353 353 351 351 356 360 358 356 358 359 360 360 358 358 356 353 353 356 357 354 354 355 355 354 353 351 351 352 354 355 356 356 357 357 357 357 358 359 359 360 358 357
342 341 339 339 339 338 338 339 340 340 341 341 341 342 342 343 345 348 350 352 352 352 354 353 352 356 359 358 357 357 360 361 360 359 358 358 356 356 358 357 354 353 355 356 356 355 353 352 353 354 354 354 355 356 356 356 357 359 359 357 356 356 357
340 338 338 337 337 337 336 337 338 339 339 339 339 340 341 342 344 346 349 351 352 352 352 353 353 355 357 360 359 359 361 363 361 360 359 359 359 358 357 355 355 355 354 354 355 355 354 353 354 354 354 352 353 354 355 355 357 359 358 356 355 354 356
338 336 336 336 335 336 336 336 337 337 338 338 338 338 340 342 343 344 347 348 350 351 351 352 353 353 355 358 359 360 361 362 361 361 360 359 357 357 356 356 355 354 353 354 354 353 354 355 356 355 355 353 353 353 354 354 356 358 358 356 354 353 354
336 335 335 334 334 334 335 337 337 336 336 336 336 337 339 340 341 342 344 346 347 348 349 350 350 352 354 356 357 358 359 360 359 359 358 357 356 356 356 355 354 351 351 354 354 351 352 355 356 355 356 356 355 354 355 354 355 356 357 356 355 354 353
334 334 333 333 333 334 334 335 336 336 335 334 335 336 337 338 340 341 342 343 344 345 346 347 347 348 349 352 353 354 356 357 357 355 355 355 355 355 354 354 353 350 351 354 355 352 350 351 352 353 354 354 353 353 352 352 351 353 355 356 355 354 352
333 333 332 332 332 333 333 333 334 335 334 333 333 334 336 337 339 340 341 341 342 342 343 344 344 344 345 346 347 349 351 354 355 354 354 353 352 353 353 351 351 350 351 352 352 352 351 350 351 352 353 352 351 352 351 350 350 352 353 353 353 351 351
332 332 333 333 331 331 331 331 332 333 333 333 332 333 335 337 339 340 340 341 341 341 341 341 341 342 342 342 343 345 347 349 351 351 351 351 350 350 350 350 349 349 349 349 349 349 349 349 349 351 351 350 350 353 353 352 350 351 350 350 349 349 351
332 331 332 331 330 329 329 329 330 331 332 332 331 331 333 335 337 338 339 339 340 340 340 339 340 340 340 340 341 342 343 344 345 346 347 347 347 346 347 347 346 346 346 346 346 346 345 345 347 350 351 351 351 353 353 352 351 350 349 348 347 348 351
332 331 330 329 329 328 327 328 328 328 330 331 330 330 331 333 335 336 336 337 338 338 338 338 337 337 338 338 337 338 340 340 341 342 342 343 344 345 345 345 344 344 344 344 344 344 344 344 346 349 350 350 351 351 351 351 351 349 348 347 347 348 349
331 329 328 328 328 326 326 327 326 326 327 328 329 330 330 330 332 334 335 335 335 336 337 336 335 334 334 334 333 332 333 334 335 337 338 339 340 341 342 342 342 343 344 343 343 344 345 345 347 348 349 349 350 350 350 350 350 348 348 348 347 347 348
328 327 326 326 327 325 324 324 324 324 326 327 328 328 328 330 331 332 333 333 332 333 334 334 333 330 328 328 328 326 326 327 328 330 332 334 336 337 338 339 341 343 343 342 342 343 344 344 346 347 346 347 347 347 346 346 347 347 347 346 345 345 345
327 326 325 325 325 323 321 320 320 321 323 326 327 328 328 329 330 331 332 332 331 330 330 331 331 329 326 324 323 322 322 321 322 325 327 330 333 335 336 337 339 341 342 343 343 344 344 343 344 344 343 342 343 342 340 340 341 342 342 341 342 342 342
327 327 326 324 323 322 320 318 317 318 320 322 325 328 328 329 330 330 331 332 331 329 329 329 329 329 327 325 324 322 320 319 322 327 329 331 332 335 336 337 338 339 341 343 343 343 343 341 340 339 337 337 337 337 336 335 335 336 337 337 337 336 336
327 327 326 325 323 322 320 319 317 317 318 319 322 325 327 328 329 330 331 332 332 331 330 330 329 329 327 327 326 324 322 323 325 329 331 332 333 335 336 336 337 337 338 339 339 338 337 336 336 335 333 332 331 330 330 329 329 331 332 332 331 329 327
326 325 324 324 324 324 322 321 319 318 318 319 320 322 324 326 328 329 330 331 330 330 330 330 329 329 328 327 326 325 324 326 328 330 331 331 332 334 334 334 335 334 334 335 335 334 333 332 332 331 329 327 326 324 324 324 325 325 324 324 323 321 320
325 324 323 323 325 324 322 322 321 319 319 320 319 319 320 322 324 327 328 329 328 328 329 329 329 329 328 326 326 325 324 324 325 327 328 329 331 332 331 331 332 332 332 332 332 332 331 329 328 327 326 324 324 323 323 323 323 322 320 318 317 315 314
325 325 324 325 326 325 324 324 323 322 322 321 320 319 318 319 322 324 326 327 328 329 329 329 329 328 327 326 326 326 325 324 323 323 324 325 327 328 328 328 328 328 329 330 330 330 329 328 326 326 325 324 323 321 321 321 320 319 318 316 314 313 312
326 326 327 328 329 328 327 327 326 324 323 324 323 321 319 318 321 323 324 326 328 329 330 329 329 329 328 327 327 326 326 325 324 323 321 320 320 322 323 324 324 323 323 324 326 327 327 325 323 321 320 320 319 318 319 320 318 316 316 316 316 316 315
327 328 329 330 330 329 329 329 328 325 324 324 324 324 322 320 320 322 324 326 327 329 329 330 330 329 329 328 328 327 326 325 325 324 323 320 318 316 317 319 320 320 319 317 319 320 321 320 319 317 316 316 314 315 318 319 319 319 320 321 322 321 320
327 328 329 330 329 329 329 329 329 327 326 326 325 325 325 324 322 321 322 324 326 328 329 329 329 328 328 327 326 326 326 326 325 325 324 323 321 319 316 315 316 317 318 317 317 317 318 318 317 316 315 316 315 316 318 320 321 322 323 323 323 323 322
325 326 328 329 328 328 329 329 328 328 328 327 327 326 326 326 325 323 321 322 323 325 326 328 328 327 327 326 325 325 326 325 325 326 325 325 325 324 322 319 317 316 317 318 319 319 319 320 319 319 319 320 320 320 321 322 323 323 323 323 323 323 323
325 326 327 328 328 328 328 328 328 328 328 327 327 327 327 326 326 325 324 323 322 322 323 324 325 325 325 325 324 324 324 324 324 325 325 326 326 326 325 324 322 320 318 318 320 321 321 322 321 320 320 320 320 320 320 320 321 322 322 323 323 322 322